Wetterdaten: Mittwoch, 04.03.2020
Datum Zeit Temp. Aussen Temp. o. S. Temp +5cm Feuchte Auss Luftdruck Regen Sonnenschein Regendauer Solar Windben Empfang
04.03.2020 00:00 3,3 C 2,8 C 2,2 C 91 % 1008,9 hPa 0,0 l/m 0 min 0 min 0 W/m 0,0 km/h (0 Bft) 97,87 %
04.03.2020 00:02 3,3 C 2,8 C 2,2 C 91 % 1008,9 hPa 0,0 l/m 0 min 0 min 0 W/m 0,0 km/h (0 Bft) 94,87 %
04.03.2020 00:04 3,3 C 2,8 C 2,2 C 91 % 1008,9 hPa 0,0 l/m 0 min 0 min 0 W/m 0,0 km/h (0 Bft) 93,62 %
04.03.2020 00:08 3,3 C 2,2 C 2,2 C 91 % 1008,9 hPa 0,0 l/m 0 min 0 min 0 W/m 0,0 km/h (0 Bft) 96,81 %
04.03.2020 00:10 3,3 C 2,2 C 2,2 C 91 % 1008,9 hPa 0,0 l/m 0 min 0 min 0 W/m 0,0 km/h (0 Bft) 97,87 %
04.03.2020 00:12 3,3 C 2,8 C 2,2 C 91 % 1008,9 hPa 0,0 l/m 0 min 0 min 0 W/m 0,0 km/h (0 Bft) 95,74 %
04.03.2020 00:14 3,3 C 2,8 C 2,2 C 91 % 1008,9 hPa 0,0 l/m 0 min 0 min 0 W/m 0,0 km/h (0 Bft) 93,48 %
04.03.2020 00:16 3,3 C 2,8 C 2,2 C 91 % 1008,9 hPa 0,0 l/m 0 min 0 min 0 W/m 6,4 km/h (2 Bft) 93,62 %
04.03.2020 00:18 3,3 C 2,8 C 2,2 C 91 % 1009,0 hPa 0,0 l/m 0 min 0 min 0 W/m 6,4 km/h (2 Bft) 82,98 %
04.03.2020 00:20 3,3 C 2,8 C 2,2 C 91 % 1008,9 hPa 0,0 l/m 0 min 0 min 0 W/m 6,4 km/h (2 Bft) 64,44 %
04.03.2020 00:22 3,3 C 2,8 C 2,2 C 91 % 1008,9 hPa 0,0 l/m 0 min 0 min 0 W/m 0,0 km/h (0 Bft) 97,87 %
04.03.2020 00:24 3,3 C 2,2 C 2,2 C 91 % 1008,9 hPa 0,0 l/m 0 min 0 min 0 W/m 6,4 km/h (2 Bft) 95,74 %
04.03.2020 00:26 3,2 C 2,2 C 2,2 C 91 % 1008,9 hPa 0,0 l/m 0 min 0 min 0 W/m 3,2 km/h (1 Bft) 97,83 %
04.03.2020 00:28 3,2 C 2,2 C 2,2 C 91 % 1008,9 hPa 0,0 l/m 0 min 0 min 0 W/m 0,0 km/h (0 Bft) 93,62 %
04.03.2020 00:30 3,2 C 2,2 C 2,2 C 91 % 1009,0 hPa 0,0 l/m 0 min 0 min 0 W/m 0,0 km/h (0 Bft) 93,62 %
04.03.2020 00:32 3,2 C 2,2 C 2,2 C 91 % 1009,0 hPa 0,0 l/m 0 min 0 min 0 W/m 3,2 km/h (1 Bft) 93,62 %
04.03.2020 00:34 3,2 C 2,2 C 2,2 C 91 % 1008,9 hPa 0,0 l/m 0 min 0 min 0 W/m 3,2 km/h (1 Bft) 91,49 %
04.03.2020 00:36 3,2 C 2,2 C 1,7 C 91 % 1009,0 hPa 0,0 l/m 0 min 0 min 0 W/m 0,0 km/h (0 Bft) 93,62 %
04.03.2020 00:38 3,2 C 2,2 C 1,7 C 91 % 1009,0 hPa 0,0 l/m 0 min 0 min 0 W/m 9,7 km/h (2 Bft) 95,65 %
04.03.2020 00:40 3,2 C 2,2 C 1,7 C 91 % 1009,0 hPa 0,0 l/m 0 min 0 min 0 W/m 9,7 km/h (2 Bft) 94,55 %
04.03.2020 00:42 3,2 C 2,2 C 1,7 C 91 % 1009,0 hPa 0,0 l/m 0 min 0 min 0 W/m 12,9 km/h (3 Bft) 91,49 %
04.03.2020 00:44 3,1 C 2,2 C 1,7 C 91 % 1008,9 hPa 0,0 l/m 0 min 0 min 0 W/m 12,9 km/h (3 Bft) 89,36 %
04.03.2020 00:46 3,1 C 2,2 C 1,7 C 91 % 1008,9 hPa 0,0 l/m 0 min 0 min 0 W/m 3,2 km/h (1 Bft) 93,48 %
04.03.2020 00:48 3,1 C 2,2 C 1,7 C 91 % 1009,0 hPa 0,0 l/m 0 min 0 min 0 W/m 3,2 km/h (1 Bft) 93,62 %
04.03.2020 00:50 3,1 C 2,2 C 1,7 C 91 % 1009,0 hPa 0,0 l/m 0 min 0 min 0 W/m 6,4 km/h (2 Bft) 95,74 %
04.03.2020 00:52 3,1 C 2,2 C 1,7 C 91 % 1009,0 hPa 0,0 l/m 0 min 0 min 0 W/m 0,0 km/h (0 Bft) 91,49 %
04.03.2020 00:54 3,1 C 2,2 C 1,7 C 91 % 1009,0 hPa 0,0 l/m 0 min 0 min 0 W/m 0,0 km/h (0 Bft) 95,74 %
04.03.2020 00:56 3,1 C 2,2 C 1,7 C 91 % 1009,0 hPa 0,0 l/m 0 min 0 min 0 W/m 6,4 km/h (2 Bft) 91,49 %
04.03.2020 00:58 3,1 C 2,2 C 1,7 C 91 % 1009,0 hPa 0,0 l/m 0 min 0 min 0 W/m 6,4 km/h (2 Bft) 91,30 %
04.03.2020 01:00 3,1 C 2,2 C 1,7 C 91 % 1009,1 hPa 0,0 l/m 0 min 0 min 0 W/m 0,0 km/h (0 Bft) 93,75 %
04.03.2020 01:02 3,0 C 2,2 C 1,7 C 91 % 1009,1 hPa 0,0 l/m 0 min 0 min 0 W/m 3,2 km/h (1 Bft) 91,30 %
04.03.2020 01:04 3,0 C 2,2 C 1,7 C 91 % 1009,1 hPa 0,0 l/m 0 min 0 min 0 W/m 3,2 km/h (1 Bft) 93,62 %
04.03.2020 01:06 2,9 C 1,7 C 1,7 C 91 % 1009,1 hPa 0,0 l/m 0 min 0 min 0 W/m 3,2 km/h (1 Bft) 89,36 %
04.03.2020 01:08 2,9 C 1,7 C 1,7 C 91 % 1009,1 hPa 0,0 l/m 0 min 0 min 0 W/m 0,0 km/h (0 Bft) 93,62 %
04.03.2020 01:10 2,9 C 1,7 C 1,1 C 91 % 1009,1 hPa 0,0 l/m 0 min 0 min 0 W/m 3,2 km/h (1 Bft) 89,13 %
04.03.2020 01:12 2,9 C 1,7 C 1,1 C 91 % 1009,1 hPa 0,0 l/m 0 min 0 min 0 W/m 0,0 km/h (0 Bft) 95,74 %
04.03.2020 01:14 2,9 C 1,7 C 1,1 C 92 % 1009,2 hPa 0,0 l/m 0 min 0 min 0 W/m 3,2 km/h (1 Bft) 93,62 %
04.03.2020 01:16 2,8 C 1,7 C 1,1 C 92 % 1009,2 hPa 0,0 l/m 0 min 0 min 0 W/m 0,0 km/h (0 Bft) 95,74 %
04.03.2020 01:18 2,8 C 1,7 C 1,1 C 92 % 1009,3 hPa 0,0 l/m 0 min 0 min 0 W/m 0,0 km/h (0 Bft) 94,74 %
04.03.2020 01:20 2,8 C 1,7 C 1,1 C 92 % 1009,3 hPa 0,0 l/m 0 min 0 min 0 W/m 0,0 km/h (0 Bft) 97,87 %
04.03.2020 01:22 2,8 C 1,7 C 1,1 C 92 % 1009,3 hPa 0,0 l/m 0 min 0 min 0 W/m 0,0 km/h (0 Bft) 97,87 %
04.03.2020 01:24 2,8 C 1,7 C 1,1 C 91 % 1009,3 hPa 0,0 l/m 0 min 0 min 0 W/m 0,0 km/h (0 Bft) 95,65 %
04.03.2020 01:26 2,8 C 1,7 C 1,1 C 91 % 1009,3 hPa 0,0 l/m 0 min 0 min 0 W/m 0,0 km/h (0 Bft) 93,62 %
04.03.2020 01:28 2,7 C 1,7 C 1,1 C 91 % 1009,4 hPa 0,0 l/m 0 min 0 min 0 W/m 0,0 km/h (0 Bft) 93,62 %
04.03.2020 01:30 2,7 C 1,7 C 1,1 C 91 % 1009,3 hPa 0,0 l/m 0 min 0 min 0 W/m 0,0 km/h (0 Bft) 95,74 %
04.03.2020 01:32 2,7 C 1,7 C 1,7 C 92 % 1009,4 hPa 0,0 l/m 0 min 0 min 0 W/m 16,1 km/h (3 Bft) 93,62 %
04.03.2020 01:34 2,7 C 2,2 C 1,7 C 92 % 1009,3 hPa 0,0 l/m 0 min 0 min 0 W/m 12,9 km/h (3 Bft) 85,11 %
04.03.2020 01:36 2,7 C 2,2 C 1,7 C 92 % 1009,3 hPa 0,0 l/m 0 min 0 min 0 W/m 3,2 km/h (1 Bft) 95,65 %
04.03.2020 01:38 2,7 C 2,2 C 1,7 C 92 % 1009,4 hPa 0,0 l/m 0 min 0 min 0 W/m 9,7 km/h (2 Bft) 89,36 %
04.03.2020 01:40 2,7 C 2,2 C 1,7 C 92 % 1009,3 hPa 0,0 l/m 0 min 0 min 0 W/m 0,0 km/h (0 Bft) 91,49 %
04.03.2020 01:42 2,7 C 2,2 C 1,7 C 92 % 1009,4 hPa 0,0 l/m 0 min 0 min 0 W/m 6,4 km/h (2 Bft) 95,74 %
04.03.2020 01:44 2,7 C 2,2 C 1,7 C 92 % 1009,4 hPa 0,0 l/m 0 min 0 min 0 W/m 12,9 km/h (3 Bft) 91,49 %
04.03.2020 01:46 2,8 C 2,2 C 1,7 C 93 % 1009,4 hPa 0,0 l/m 0 min 0 min 0 W/m 6,4 km/h (2 Bft) 95,74 %
04.03.2020 01:48 2,8 C 2,2 C 1,7 C 92 % 1009,4 hPa 0,0 l/m 0 min 0 min 0 W/m 16,1 km/h (3 Bft) 97,83 %
04.03.2020 01:50 2,8 C 2,2 C 1,7 C 93 % 1009,4 hPa 0,0 l/m 0 min 0 min 0 W/m 6,4 km/h (2 Bft) 97,87 %
04.03.2020 01:52 2,8 C 2,2 C 1,7 C 93 % 1009,4 hPa 0,0 l/m 0 min 0 min 0 W/m 3,2 km/h (1 Bft) 100,00 %
04.03.2020 01:54 2,8 C 2,2 C 1,7 C 93 % 1009,4 hPa 0,0 l/m 0 min 0 min 0 W/m 12,9 km/h (3 Bft) 100,00 %
04.03.2020 01:56 2,8 C 2,2 C 1,7 C 93 % 1009,4 hPa 0,0 l/m 0 min 0 min 0 W/m 12,9 km/h (3 Bft) 100,00 %
04.03.2020 01:58 2,8 C 2,2 C 1,7 C 93 % 1009,3 hPa 0,0 l/m 0 min 0 min 0 W/m 12,9 km/h (3 Bft) 97,87 %
04.03.2020 02:00 2,8 C 2,2 C 1,7 C 93 % 1009,3 hPa 0,0 l/m 0 min 0 min 0 W/m 3,2 km/h (1 Bft) 89,13 %
04.03.2020 02:02 2,9 C 2,2 C 1,7 C 93 % 1009,4 hPa 0,0 l/m 0 min 0 min 0 W/m 6,4 km/h (2 Bft) 100,00 %
04.03.2020 02:04 2,9 C 2,2 C 1,7 C 93 % 1009,4 hPa 0,0 l/m 0 min 0 min 0 W/m 16,1 km/h (3 Bft) 95,74 %
04.03.2020 02:06 2,9 C 2,2 C 1,7 C 93 % 1009,3 hPa 0,0 l/m 0 min 0 min 0 W/m 12,9 km/h (3 Bft) 97,87 %
04.03.2020 02:08 2,9 C 2,2 C 1,7 C 93 % 1009,3 hPa 0,0 l/m 0 min 0 min 0 W/m 16,1 km/h (3 Bft) 100,00 %
04.03.2020 02:10 2,9 C 2,2 C 1,7 C 93 % 1009,3 hPa 0,0 l/m 0 min 0 min 0 W/m 12,9 km/h (3 Bft) 95,74 %
04.03.2020 02:12 2,9 C 2,2 C 1,7 C 93 % 1009,4 hPa 0,0 l/m 0 min 0 min 0 W/m 12,9 km/h (3 Bft) 93,48 %
04.03.2020 02:14 2,9 C 2,2 C 1,7 C 93 % 1009,4 hPa 0,0 l/m 0 min 0 min 0 W/m 16,1 km/h (3 Bft) 91,49 %
04.03.2020 02:16 2,9 C 2,2 C 1,7 C 93 % 1009,4 hPa 0,0 l/m 0 min 0 min 0 W/m 12,9 km/h (3 Bft) 90,24 %
04.03.2020 02:18 2,9 C 2,2 C 1,7 C 94 % 1009,4 hPa 0,0 l/m 0 min 0 min 0 W/m 6,4 km/h (2 Bft) 96,43 %
04.03.2020 02:20 2,9 C 2,2 C 1,7 C 94 % 1009,4 hPa 0,0 l/m 0 min 0 min 0 W/m 0,0 km/h (0 Bft) 100,00 %
04.03.2020 02:22 2,9 C 2,2 C 1,7 C 94 % 1009,4 hPa 0,0 l/m 0 min 0 min 0 W/m 0,0 km/h (0 Bft) 100,00 %
04.03.2020 02:24 2,9 C 2,2 C 1,7 C 94 % 1009,4 hPa 0,0 l/m 0 min 0 min 0 W/m 6,4 km/h (2 Bft) 100,00 %
04.03.2020 02:26 2,9 C 2,2 C 1,7 C 94 % 1009,4 hPa 0,0 l/m 0 min 0 min 0 W/m 12,9 km/h (3 Bft) 97,87 %
04.03.2020 02:28 2,9 C 2,2 C 1,7 C 94 % 1009,4 hPa 0,0 l/m 0 min 0 min 0 W/m 9,7 km/h (2 Bft) 97,87 %
04.03.2020 02:30 2,9 C 2,2 C 1,7 C 94 % 1009,4 hPa 0,0 l/m 0 min 0 min 0 W/m 16,1 km/h (3 Bft) 97,87 %
04.03.2020 02:32 2,9 C 2,2 C 1,7 C 94 % 1009,4 hPa 0,0 l/m 0 min 0 min 0 W/m 6,4 km/h (2 Bft) 95,65 %
04.03.2020 02:34 2,9 C 2,2 C 1,7 C 94 % 1009,4 hPa 0,0 l/m 0 min 0 min 0 W/m 6,4 km/h (2 Bft) 95,74 %
04.03.2020 02:36 2,9 C 2,2 C 1,7 C 94 % 1009,4 hPa 0,0 l/m 0 min 0 min 0 W/m 16,1 km/h (3 Bft) 100,00 %
04.03.2020 02:38 2,9 C 2,2 C 1,7 C 94 % 1009,4 hPa 0,0 l/m 0 min 0 min 0 W/m 3,2 km/h (1 Bft) 100,00 %
04.03.2020 02:40 2,9 C 2,2 C 1,7 C 94 % 1009,4 hPa 0,0 l/m 0 min 0 min 0 W/m 3,2 km/h (1 Bft) 93,62 %
04.03.2020 02:42 2,9 C 2,2 C 1,7 C 94 % 1009,4 hPa 0,0 l/m 0 min 0 min 0 W/m 12,9 km/h (3 Bft) 93,62 %
04.03.2020 02:44 2,9 C 2,2 C 1,7 C 94 % 1009,4 hPa 0,0 l/m 0 min 0 min 0 W/m 6,4 km/h (2 Bft) 93,62 %
04.03.2020 02:46 2,9 C 2,2 C 1,7 C 94 % 1009,4 hPa 0,0 l/m 0 min 0 min 0 W/m 6,4 km/h (2 Bft) 95,65 %
04.03.2020 02:48 2,9 C 2,2 C 1,7 C 94 % 1009,5 hPa 0,0 l/m 0 min 0 min 0 W/m 3,2 km/h (1 Bft) 95,74 %
04.03.2020 02:50 2,9 C 2,2 C 1,7 C 94 % 1009,5 hPa 0,0 l/m 0 min 0 min 0 W/m 0,0 km/h (0 Bft) 93,62 %
04.03.2020 02:52 2,9 C 2,2 C 1,7 C 94 % 1009,5 hPa 0,0 l/m 0 min 0 min 0 W/m 0,0 km/h (0 Bft) 95,74 %
04.03.2020 02:54 2,8 C 2,2 C 1,7 C 94 % 1009,5 hPa 0,0 l/m 0 min 0 min 0 W/m 0,0 km/h (0 Bft) 97,87 %
04.03.2020 02:56 2,9 C 2,2 C 1,7 C 94 % 1009,5 hPa 0,0 l/m 0 min 0 min 0 W/m 0,0 km/h (0 Bft) 95,65 %
04.03.2020 02:58 2,9 C 2,2 C 1,7 C 94 % 1009,5 hPa 0,0 l/m 0 min 0 min 0 W/m 6,4 km/h (2 Bft) 97,87 %
04.03.2020 03:00 2,9 C 2,2 C 1,7 C 94 % 1009,5 hPa 0,0 l/m 0 min 0 min 0 W/m 3,2 km/h (1 Bft) 97,87 %
04.03.2020 03:02 2,9 C 2,2 C 1,7 C 94 % 1009,4 hPa 0,0 l/m 0 min 0 min 0 W/m 3,2 km/h (1 Bft) 95,74 %
04.03.2020 03:04 2,9 C 2,2 C 1,7 C 94 % 1009,5 hPa 0,0 l/m 0 min 0 min 0 W/m 6,4 km/h (2 Bft) 97,87 %
04.03.2020 03:06 2,9 C 2,2 C 1,7 C 94 % 1009,5 hPa 0,0 l/m 0 min 0 min 0 W/m 0,0 km/h (0 Bft) 95,74 %
04.03.2020 03:08 2,9 C 2,2 C 2,2 C 94 % 1009,5 hPa 0,0 l/m 0 min 0 min 0 W/m 3,2 km/h (1 Bft) 89,13 %
04.03.2020 03:10 2,9 C 2,8 C 2,2 C 94 % 1009,5 hPa 0,0 l/m 0 min 0 min 0 W/m 16,1 km/h (3 Bft) 95,74 %
04.03.2020 03:12 3,0 C 2,8 C 2,2 C 94 % 1009,5 hPa 0,0 l/m 0 min 0 min 0 W/m 22,5 km/h (4 Bft) 93,62 %
04.03.2020 03:14 3,0 C 2,8 C 2,2 C 95 % 1009,5 hPa 0,0 l/m 0 min 0 min 0 W/m 19,3 km/h (3 Bft) 95,74 %
04.03.2020 03:16 3,1 C 2,8 C 2,2 C 95 % 1009,5 hPa 0,0 l/m 0 min 0 min 0 W/m 6,4 km/h (2 Bft) 93,62 %
04.03.2020 03:18 3,1 C 2,8 C 2,2 C 95 % 1009,5 hPa 0,0 l/m 0 min 0 min 0 W/m 3,2 km/h (1 Bft) 95,74 %
04.03.2020 03:20 3,1 C 2,8 C 2,2 C 95 % 1009,4 hPa 0,0 l/m 0 min 0 min 0 W/m 16,1 km/h (3 Bft) 97,83 %
04.03.2020 03:22 3,1 C 2,8 C 2,2 C 95 % 1009,5 hPa 0,0 l/m 0 min 0 min 0 W/m 16,1 km/h (3 Bft) 95,74 %
04.03.2020 03:24 3,1 C 2,8 C 2,2 C 95 % 1009,5 hPa 0,0 l/m 0 min 0 min 0 W/m 12,9 km/h (3 Bft) 93,62 %
04.03.2020 03:26 3,2 C 2,8 C 2,2 C 95 % 1009,5 hPa 0,0 l/m 0 min 0 min 0 W/m 22,5 km/h (4 Bft) 95,74 %
04.03.2020 03:28 3,2 C 2,8 C 2,2 C 95 % 1009,5 hPa 0,0 l/m 0 min 0 min 0 W/m 12,9 km/h (3 Bft) 97,87 %
04.03.2020 03:30 3,2 C 2,8 C 2,2 C 95 % 1009,5 hPa 0,0 l/m 0 min 0 min 0 W/m 19,3 km/h (3 Bft) 97,87 %
04.03.2020 03:32 3,2 C 2,8 C 2,2 C 95 % 1009,5 hPa 0,0 l/m 0 min 0 min 0 W/m 9,7 km/h (2 Bft) 97,83 %
04.03.2020 03:34 3,3 C 2,8 C 2,2 C 95 % 1009,5 hPa 0,0 l/m 0 min 0 min 0 W/m 16,1 km/h (3 Bft) 97,87 %
04.03.2020 03:36 3,3 C 2,8 C 2,2 C 95 % 1009,5 hPa 0,0 l/m 0 min 0 min 0 W/m 6,4 km/h (2 Bft) 97,87 %
04.03.2020 03:38 3,3 C 2,8 C 2,2 C 95 % 1009,4 hPa 0,0 l/m 0 min 0 min 0 W/m 16,1 km/h (3 Bft) 97,87 %
04.03.2020 03:40 3,3 C 3,3 C 2,2 C 95 % 1009,4 hPa 0,0 l/m 0 min 0 min 0 W/m 16,1 km/h (3 Bft) 100,00 %
04.03.2020 03:42 3,3 C 2,8 C 2,2 C 95 % 1009,4 hPa 0,0 l/m 0 min 0 min 0 W/m 12,9 km/h (3 Bft) 100,00 %
04.03.2020 03:44 3,4 C 3,3 C 2,2 C 95 % 1009,4 hPa 0,0 l/m 0 min 0 min 0 W/m 12,9 km/h (3 Bft) 95,74 %
04.03.2020 03:46 3,4 C 2,8 C 2,2 C 95 % 1009,5 hPa 0,0 l/m 0 min 0 min 0 W/m 12,9 km/h (3 Bft) 97,87 %
04.03.2020 03:48 3,4 C 2,8 C 2,2 C 95 % 1009,5 hPa 0,0 l/m 0 min 0 min 0 W/m 6,4 km/h (2 Bft) 100,00 %
04.03.2020 03:50 3,4 C 2,8 C 2,2 C 95 % 1009,5 hPa 0,0 l/m 0 min 0 min 0 W/m 3,2 km/h (1 Bft) 97,87 %
04.03.2020 03:52 3,4 C 3,3 C 2,8 C 95 % 1009,6 hPa 0,0 l/m 0 min 0 min 0 W/m 0,0 km/h (0 Bft) 93,62 %
04.03.2020 03:54 3,4 C 3,3 C 2,8 C 95 % 1009,6 hPa 0,0 l/m 0 min 0 min 0 W/m 6,4 km/h (2 Bft) 95,65 %
04.03.2020 03:56 3,4 C 3,3 C 2,8 C 95 % 1009,6 hPa 0,0 l/m 0 min 0 min 0 W/m 12,9 km/h (3 Bft) 95,74 %
04.03.2020 03:58 3,5 C 3,3 C 2,8 C 95 % 1009,6 hPa 0,0 l/m 0 min 0 min 0 W/m 3,2 km/h (1 Bft) 91,49 %
04.03.2020 04:00 3,5 C 3,3 C 2,8 C 95 % 1009,6 hPa 0,0 l/m 0 min 0 min 0 W/m 0,0 km/h (0 Bft) 89,36 %
04.03.2020 04:02 3,5 C 3,3 C 2,8 C 95 % 1009,7 hPa 0,0 l/m 0 min 0 min 0 W/m 16,1 km/h (3 Bft) 100,00 %
04.03.2020 04:04 3,5 C 3,3 C 2,8 C 95 % 1009,7 hPa 0,0 l/m 0 min 0 min 0 W/m 12,9 km/h (3 Bft) 91,49 %
04.03.2020 04:06 3,6 C 3,3 C 2,8 C 95 % 1009,7 hPa 0,0 l/m 0 min 0 min 0 W/m 12,9 km/h (3 Bft) 93,48 %
04.03.2020 04:08 3,6 C 3,3 C 2,8 C 95 % 1009,7 hPa 0,0 l/m 0 min 0 min 0 W/m 12,9 km/h (3 Bft) 93,62 %
04.03.2020 04:10 3,6 C 3,3 C 2,8 C 95 % 1009,7 hPa 0,0 l/m 0 min 0 min 0 W/m 6,4 km/h (2 Bft) 93,62 %
04.03.2020 04:12 3,6 C 3,3 C 2,8 C 95 % 1009,7 hPa 0,0 l/m 0 min 0 min 0 W/m 12,9 km/h (3 Bft) 93,62 %
04.03.2020 04:14 3,6 C 3,3 C 2,8 C 95 % 1009,7 hPa 0,0 l/m 0 min 0 min 0 W/m 6,4 km/h (2 Bft) 95,74 %
04.03.2020 04:16 3,7 C 3,3 C 2,8 C 95 % 1009,7 hPa 0,0 l/m 0 min 0 min 0 W/m 6,4 km/h (2 Bft) 91,49 %
04.03.2020 04:18 3,7 C 3,3 C 2,8 C 95 % 1009,7 hPa 0,0 l/m 0 min 0 min 0 W/m 0,0 km/h (0 Bft) 91,30 %
04.03.2020 04:20 3,7 C 3,3 C 2,8 C 95 % 1009,7 hPa 0,0 l/m 0 min 0 min 0 W/m 6,4 km/h (2 Bft) 91,49 %
04.03.2020 04:22 3,7 C 3,3 C 2,8 C 95 % 1009,6 hPa 0,0 l/m 0 min 0 min 0 W/m 12,9 km/h (3 Bft) 95,74 %
04.03.2020 04:24 3,7 C 3,3 C 2,8 C 95 % 1009,6 hPa 0,0 l/m 0 min 0 min 0 W/m 6,4 km/h (2 Bft) 95,74 %
04.03.2020 04:26 3,7 C 3,3 C 2,8 C 95 % 1009,7 hPa 0,0 l/m 0 min 0 min 0 W/m 9,7 km/h (2 Bft) 93,62 %
04.03.2020 04:28 3,7 C 3,3 C 2,8 C 95 % 1009,7 hPa 0,0 l/m 0 min 0 min 0 W/m 12,9 km/h (3 Bft) 91,30 %
04.03.2020 04:30 3,8 C 3,3 C 2,8 C 95 % 1009,7 hPa 0,0 l/m 0 min 2 min 0 W/m 6,4 km/h (2 Bft) 95,74 %
04.03.2020 04:32 3,8 C 3,3 C 2,8 C 95 % 1009,7 hPa 0,0 l/m 0 min 2 min 0 W/m 3,2 km/h (1 Bft) 91,49 %
04.03.2020 04:34 3,8 C 3,3 C 2,8 C 95 % 1009,7 hPa 0,0 l/m 0 min 0 min 0 W/m 3,2 km/h (1 Bft) 91,49 %
04.03.2020 04:36 3,8 C 3,3 C 2,8 C 95 % 1009,7 hPa 0,0 l/m 0 min 0 min 0 W/m 0,0 km/h (0 Bft) 95,74 %
04.03.2020 04:38 3,8 C 3,3 C 2,8 C 95 % 1009,7 hPa 0,0 l/m 0 min 0 min 0 W/m 0,0 km/h (0 Bft) 93,62 %
04.03.2020 04:40 3,8 C 3,3 C 2,8 C 95 % 1009,7 hPa 0,0 l/m 0 min 0 min 0 W/m 0,0 km/h (0 Bft) 95,65 %
04.03.2020 04:42 3,8 C 3,3 C 2,8 C 95 % 1009,7 hPa 0,0 l/m 0 min 0 min 0 W/m 0,0 km/h (0 Bft) 85,11 %
04.03.2020 04:44 3,9 C 3,3 C 2,8 C 95 % 1009,7 hPa 0,0 l/m 0 min 0 min 0 W/m 0,0 km/h (0 Bft) 97,87 %
04.03.2020 04:46 3,9 C 3,3 C 2,8 C 95 % 1009,7 hPa 0,0 l/m 0 min 0 min 0 W/m 0,0 km/h (0 Bft) 93,62 %
04.03.2020 04:48 3,9 C 3,3 C 2,8 C 95 % 1009,7 hPa 0,0 l/m 0 min 0 min 0 W/m 0,0 km/h (0 Bft) 95,74 %
04.03.2020 04:50 3,9 C 3,3 C 2,8 C 95 % 1009,7 hPa 0,0 l/m 0 min 0 min 0 W/m 0,0 km/h (0 Bft) 93,62 %
04.03.2020 04:52 3,9 C 3,3 C 2,8 C 96 % 1009,7 hPa 0,0 l/m 0 min 0 min 0 W/m 0,0 km/h (0 Bft) 93,48 %
04.03.2020 04:54 3,9 C 3,3 C 2,8 C 96 % 1009,7 hPa 0,0 l/m 0 min 0 min 0 W/m 0,0 km/h (0 Bft) 95,74 %
04.03.2020 04:56 4,0 C 3,3 C 2,8 C 96 % 1009,7 hPa 0,0 l/m 0 min 0 min 0 W/m 0,0 km/h (0 Bft) 93,62 %
04.03.2020 04:58 4,0 C 3,3 C 2,8 C 96 % 1009,7 hPa 0,0 l/m 0 min 0 min 0 W/m 16,1 km/h (3 Bft) 100,00 %
04.03.2020 05:00 4,1 C 3,3 C 2,8 C 96 % 1009,7 hPa 0,0 l/m 0 min 0 min 0 W/m 12,9 km/h (3 Bft) 89,36 %
04.03.2020 05:02 4,1 C 3,3 C 2,8 C 96 % 1009,7 hPa 0,0 l/m 0 min 0 min 0 W/m 16,1 km/h (3 Bft) 95,74 %
04.03.2020 05:04 4,1 C 3,3 C 2,8 C 96 % 1009,7 hPa 0,0 l/m 0 min 2 min 0 W/m 9,7 km/h (2 Bft) 100,00 %
04.03.2020 05:06 4,1 C 3,9 C 2,8 C 96 % 1009,7 hPa 0,0 l/m 0 min 0 min 0 W/m 9,7 km/h (2 Bft) 97,87 %
04.03.2020 05:08 4,2 C 3,9 C 2,8 C 96 % 1009,7 hPa 0,0 l/m 0 min 0 min 0 W/m 6,4 km/h (2 Bft) 97,87 %
04.03.2020 05:10 4,2 C 3,9 C 2,8 C 96 % 1009,8 hPa 0,0 l/m 0 min 0 min 0 W/m 0,0 km/h (0 Bft) 93,62 %
04.03.2020 05:12 4,2 C 3,9 C 2,8 C 96 % 1009,7 hPa 0,0 l/m 0 min 0 min 0 W/m 6,4 km/h (2 Bft) 95,74 %
04.03.2020 05:14 4,2 C 3,9 C 3,3 C 96 % 1009,7 hPa 0,0 l/m 0 min 0 min 0 W/m 9,7 km/h (2 Bft) 89,36 %
04.03.2020 05:16 4,3 C 3,9 C 3,3 C 96 % 1009,8 hPa 0,0 l/m 0 min 0 min 0 W/m 19,3 km/h (3 Bft) 97,83 %
04.03.2020 05:18 4,3 C 3,9 C 3,3 C 96 % 1009,7 hPa 0,0 l/m 0 min 0 min 0 W/m 6,4 km/h (2 Bft) 97,87 %
04.03.2020 05:20 4,3 C 3,9 C 3,3 C 96 % 1009,7 hPa 0,0 l/m 0 min 0 min 0 W/m 12,9 km/h (3 Bft) 97,87 %
04.03.2020 05:22 4,3 C 3,9 C 3,3 C 96 % 1009,7 hPa 0,0 l/m 0 min 0 min 0 W/m 6,4 km/h (2 Bft) 89,36 %
04.03.2020 05:24 4,3 C 3,9 C 3,3 C 96 % 1009,7 hPa 0,0 l/m 0 min 0 min 0 W/m 19,3 km/h (3 Bft) 97,87 %
04.03.2020 05:26 4,4 C 3,9 C 3,3 C 96 % 1009,8 hPa 0,0 l/m 0 min 0 min 0 W/m 12,9 km/h (3 Bft) 93,62 %
04.03.2020 05:28 4,4 C 3,9 C 3,3 C 96 % 1009,8 hPa 0,0 l/m 0 min 0 min 0 W/m 12,9 km/h (3 Bft) 91,30 %
04.03.2020 05:30 4,4 C 3,9 C 3,3 C 96 % 1009,8 hPa 0,0 l/m 0 min 0 min 0 W/m 9,7 km/h (2 Bft) 91,49 %
04.03.2020 05:32 4,4 C 3,9 C 3,3 C 96 % 1009,8 hPa 0,0 l/m 0 min 0 min 0 W/m 16,1 km/h (3 Bft) 95,74 %
04.03.2020 05:34 4,5 C 3,9 C 3,3 C 96 % 1009,8 hPa 0,0 l/m 0 min 0 min 0 W/m 9,7 km/h (2 Bft) 93,62 %
04.03.2020 05:36 4,5 C 3,9 C 3,3 C 96 % 1009,8 hPa 0,0 l/m 0 min 0 min 0 W/m 12,9 km/h (3 Bft) 91,49 %
04.03.2020 05:38 4,5 C 3,9 C 3,3 C 96 % 1009,8 hPa 0,0 l/m 0 min 0 min 0 W/m 12,9 km/h (3 Bft) 97,83 %
04.03.2020 05:40 4,5 C 3,9 C 3,3 C 96 % 1009,8 hPa 0,0 l/m 0 min 0 min 0 W/m 12,9 km/h (3 Bft) 89,36 %
04.03.2020 05:42 4,5 C 3,9 C 3,3 C 96 % 1009,8 hPa 0,0 l/m 0 min 0 min 0 W/m 3,2 km/h (1 Bft) 91,49 %
04.03.2020 05:44 4,5 C 3,9 C 3,3 C 96 % 1009,9 hPa 0,0 l/m 0 min 0 min 0 W/m 16,1 km/h (3 Bft) 97,87 %
04.03.2020 05:46 4,6 C 3,9 C 3,3 C 96 % 1009,9 hPa 0,0 l/m 0 min 0 min 0 W/m 9,7 km/h (2 Bft) 87,23 %
04.03.2020 05:48 4,6 C 3,9 C 3,3 C 96 % 1009,9 hPa 0,0 l/m 0 min 0 min 0 W/m 16,1 km/h (3 Bft) 93,62 %
04.03.2020 05:50 4,6 C 3,9 C 3,3 C 96 % 1009,9 hPa 0,0 l/m 0 min 0 min 0 W/m 16,1 km/h (3 Bft) 97,83 %
04.03.2020 05:52 4,6 C 3,9 C 3,3 C 96 % 1009,9 hPa 0,0 l/m 0 min 2 min 0 W/m 12,9 km/h (3 Bft) 93,62 %
04.03.2020 05:54 4,6 C 3,9 C 3,3 C 96 % 1009,9 hPa 0,0 l/m 0 min 2 min 0 W/m 12,9 km/h (3 Bft) 95,74 %
04.03.2020 05:56 4,6 C 3,9 C 3,3 C 96 % 1010,0 hPa 0,0 l/m 0 min 2 min 0 W/m 12,9 km/h (3 Bft) 87,23 %
04.03.2020 05:58 4,7 C 3,9 C 3,3 C 96 % 1010,0 hPa 0,0 l/m 0 min 2 min 0 W/m 9,7 km/h (2 Bft) 100,00 %
04.03.2020 06:00 4,6 C 3,9 C 3,3 C 96 % 1010,0 hPa 0,0 l/m 0 min 2 min 0 W/m 12,9 km/h (3 Bft) 80,85 %
04.03.2020 06:02 4,7 C 3,9 C 3,3 C 96 % 1010,0 hPa 0,0 l/m 0 min 2 min 0 W/m 12,9 km/h (3 Bft) 65,71 %
04.03.2020 06:04 4,7 C 3,9 C 3,3 C 96 % 1010,0 hPa 0,0 l/m 0 min 2 min 0 W/m 12,9 km/h (3 Bft) 100,00 %
04.03.2020 06:06 4,7 C 3,9 C 3,3 C 96 % 1010,0 hPa 0,0 l/m 0 min 2 min 0 W/m 12,9 km/h (3 Bft) 97,87 %
04.03.2020 06:08 4,7 C 3,9 C 3,3 C 96 % 1010,1 hPa 0,0 l/m 0 min 2 min 0 W/m 12,9 km/h (3 Bft) 97,87 %
04.03.2020 06:10 4,7 C 3,9 C 3,3 C 96 % 1010,1 hPa 0,0 l/m 0 min 2 min 0 W/m 12,9 km/h (3 Bft) 97,87 %
04.03.2020 06:12 4,7 C 3,9 C 3,3 C 96 % 1010,1 hPa 0,0 l/m 0 min 2 min 0 W/m 9,7 km/h (2 Bft) 100,00 %
04.03.2020 06:14 4,7 C 3,9 C 3,3 C 96 % 1010,1 hPa 0,0 l/m 0 min 2 min 0 W/m 9,7 km/h (2 Bft) 97,83 %
04.03.2020 06:16 4,7 C 3,9 C 3,3 C 96 % 1010,1 hPa 0,0 l/m 0 min 2 min 0 W/m 19,3 km/h (3 Bft) 100,00 %
04.03.2020 06:18 4,7 C 3,9 C 3,3 C 96 % 1010,1 hPa 0,0 l/m 0 min 2 min 0 W/m 16,1 km/h (3 Bft) 97,87 %
04.03.2020 06:20 4,7 C 3,9 C 3,3 C 96 % 1010,1 hPa 0,0 l/m 0 min 2 min 0 W/m 6,4 km/h (2 Bft) 100,00 %
04.03.2020 06:22 4,7 C 3,9 C 3,3 C 96 % 1010,2 hPa 0,0 l/m 0 min 2 min 0 W/m 6,4 km/h (2 Bft) 100,00 %
04.03.2020 06:24 4,7 C 3,9 C 3,3 C 96 % 1010,1 hPa 0,0 l/m 0 min 2 min 0 W/m 9,7 km/h (2 Bft) 100,00 %
04.03.2020 06:26 4,7 C 3,9 C 3,3 C 96 % 1010,2 hPa 0,0 l/m 0 min 2 min 0 W/m 6,4 km/h (2 Bft) 100,00 %
04.03.2020 06:28 4,7 C 3,9 C 3,3 C 97 % 1010,2 hPa 0,0 l/m 0 min 2 min 0 W/m 6,4 km/h (2 Bft) 100,00 %
04.03.2020 06:30 4,7 C 3,9 C 3,3 C 97 % 1010,2 hPa 0,0 l/m 0 min 2 min 0 W/m 19,3 km/h (3 Bft) 100,00 %
04.03.2020 06:32 4,8 C 3,9 C 3,3 C 97 % 1010,3 hPa 0,0 l/m 0 min 2 min 0 W/m 12,9 km/h (3 Bft) 100,00 %
04.03.2020 06:34 4,7 C 3,9 C 3,3 C 96 % 1010,2 hPa 0,0 l/m 0 min 2 min 0 W/m 16,1 km/h (3 Bft) 97,87 %
04.03.2020 06:36 4,7 C 3,9 C 3,3 C 97 % 1010,3 hPa 0,0 l/m 0 min 2 min 0 W/m 12,9 km/h (3 Bft) 95,65 %
04.03.2020 06:38 4,7 C 3,9 C 3,3 C 97 % 1010,3 hPa 0,0 l/m 0 min 2 min 0 W/m 12,9 km/h (3 Bft) 97,87 %
04.03.2020 06:40 4,7 C 3,9 C 3,3 C 97 % 1010,3 hPa 0,0 l/m 0 min 2 min 0 W/m 16,1 km/h (3 Bft) 97,87 %
04.03.2020 06:42 4,7 C 3,9 C 3,3 C 97 % 1010,3 hPa 0,2 l/m 0 min 2 min 0 W/m 16,1 km/h (3 Bft) 97,87 %
04.03.2020 06:44 4,7 C 3,9 C 3,3 C 97 % 1010,3 hPa 0,0 l/m 0 min 2 min 0 W/m 16,1 km/h (3 Bft) 95,74 %
04.03.2020 06:46 4,8 C 3,9 C 3,3 C 97 % 1010,3 hPa 0,2 l/m 0 min 2 min 0 W/m 16,1 km/h (3 Bft) 95,74 %
04.03.2020 06:48 4,8 C 3,9 C 3,3 C 97 % 1010,3 hPa 0,0 l/m 0 min 2 min 0 W/m 0,0 km/h (0 Bft) 95,65 %
04.03.2020 06:50 4,8 C 3,9 C 3,3 C 97 % 1010,3 hPa 0,0 l/m 0 min 2 min 0 W/m 0,0 km/h (0 Bft) 89,36 %
04.03.2020 06:52 4,8 C 3,9 C 3,3 C 97 % 1010,4 hPa 0,0 l/m 0 min 2 min 0 W/m 6,4 km/h (2 Bft) 93,62 %
04.03.2020 06:54 4,8 C 3,9 C 3,3 C 97 % 1010,4 hPa 0,0 l/m 0 min 2 min 0 W/m 3,2 km/h (1 Bft) 95,74 %
04.03.2020 06:56 4,8 C 3,9 C 3,3 C 97 % 1010,4 hPa 0,0 l/m 0 min 2 min 0 W/m 3,2 km/h (1 Bft) 97,87 %
04.03.2020 06:58 4,8 C 3,9 C 3,3 C 97 % 1010,4 hPa 0,0 l/m 0 min 0 min 0 W/m 0,0 km/h (0 Bft) 97,87 %
04.03.2020 07:00 4,8 C 3,9 C 3,3 C 97 % 1010,3 hPa 0,0 l/m 0 min 0 min 0 W/m 0,0 km/h (0 Bft) 97,83 %
04.03.2020 07:02 4,8 C 3,9 C 3,3 C 97 % 1010,4 hPa 0,0 l/m 0 min 0 min 0 W/m 3,2 km/h (1 Bft) 95,74 %
04.03.2020 07:04 4,8 C 3,9 C 3,3 C 97 % 1010,4 hPa 0,0 l/m 0 min 0 min 0 W/m 0,0 km/h (0 Bft) 95,74 %
04.03.2020 07:06 4,8 C 3,9 C 3,3 C 97 % 1010,4 hPa 0,0 l/m 0 min 2 min 0 W/m 3,2 km/h (1 Bft) 97,87 %
04.03.2020 07:08 4,8 C 3,9 C 3,3 C 97 % 1010,4 hPa 0,0 l/m 0 min 2 min 0 W/m 9,7 km/h (2 Bft) 97,87 %
04.03.2020 07:10 4,8 C 3,9 C 3,3 C 97 % 1010,4 hPa 0,0 l/m 0 min 2 min 0 W/m 3,2 km/h (1 Bft) 97,87 %
04.03.2020 07:12 4,8 C 3,9 C 3,3 C 97 % 1010,4 hPa 0,0 l/m 0 min 0 min 0 W/m 0,0 km/h (0 Bft) 97,83 %
04.03.2020 07:14 4,8 C 3,9 C 3,3 C 97 % 1010,4 hPa 0,0 l/m 0 min 0 min 0 W/m 0,0 km/h (0 Bft) 97,87 %
04.03.2020 07:16 4,8 C 3,9 C 3,3 C 97 % 1010,4 hPa 0,0 l/m 0 min 0 min 0 W/m 16,1 km/h (3 Bft) 97,87 %
04.03.2020 07:18 4,9 C 3,9 C 3,3 C 97 % 1010,4 hPa 0,0 l/m 0 min 2 min 0 W/m 6,4 km/h (2 Bft) 97,87 %
04.03.2020 07:20 4,9 C 3,9 C 3,3 C 97 % 1010,4 hPa 0,0 l/m 0 min 2 min 0 W/m 6,4 km/h (2 Bft) 100,00 %
04.03.2020 07:22 4,9 C 3,9 C 3,3 C 97 % 1010,5 hPa 0,0 l/m 0 min 0 min 0 W/m 12,9 km/h (3 Bft) 97,83 %
04.03.2020 07:24 4,9 C 3,9 C 3,3 C 97 % 1010,5 hPa 0,0 l/m 0 min 2 min 4 W/m 3,2 km/h (1 Bft) 100,00 %
04.03.2020 07:26 4,9 C 3,9 C 3,3 C 97 % 1010,5 hPa 0,0 l/m 0 min 0 min 5 W/m 0,0 km/h (0 Bft) 97,87 %
04.03.2020 07:28 4,9 C 3,9 C 3,3 C 97 % 1010,5 hPa 0,0 l/m 0 min 0 min 5 W/m 0,0 km/h (0 Bft) 100,00 %
04.03.2020 07:30 4,9 C 3,9 C 3,3 C 97 % 1010,5 hPa 0,0 l/m 0 min 0 min 5 W/m 0,0 km/h (0 Bft) 100,00 %
04.03.2020 07:32 4,9 C 3,9 C 3,3 C 97 % 1010,5 hPa 0,0 l/m 0 min 0 min 7 W/m 0,0 km/h (0 Bft) 97,87 %
04.03.2020 07:34 4,9 C 3,9 C 3,3 C 97 % 1010,6 hPa 0,0 l/m 0 min 2 min 7 W/m 3,2 km/h (1 Bft) 97,83 %
04.03.2020 07:36 4,9 C 3,9 C 3,3 C 97 % 1010,5 hPa 0,0 l/m 0 min 2 min 7 W/m 0,0 km/h (0 Bft) 97,87 %
04.03.2020 07:38 4,9 C 3,9 C 3,3 C 97 % 1010,6 hPa 0,0 l/m 0 min 2 min 7 W/m 0,0 km/h (0 Bft) 93,62 %
04.03.2020 07:40 4,9 C 3,9 C 3,3 C 97 % 1010,5 hPa 0,0 l/m 0 min 2 min 6 W/m 3,2 km/h (1 Bft) 97,87 %
04.03.2020 07:42 4,9 C 3,9 C 3,3 C 97 % 1010,6 hPa 0,0 l/m 0 min 2 min 7 W/m 3,2 km/h (1 Bft) 95,74 %
04.03.2020 07:44 4,9 C 4,4 C 3,3 C 97 % 1010,6 hPa 0,0 l/m 0 min 2 min 10 W/m 0,0 km/h (0 Bft) 95,74 %
04.03.2020 07:46 4,9 C 4,4 C 3,9 C 97 % 1010,7 hPa 0,0 l/m 0 min 2 min 15 W/m 0,0 km/h (0 Bft) 93,48 %
04.03.2020 07:48 4,9 C 4,4 C 3,9 C 97 % 1010,8 hPa 0,0 l/m 0 min 2 min 16 W/m 0,0 km/h (0 Bft) 93,62 %
04.03.2020 07:50 4,9 C 4,4 C 3,9 C 97 % 1010,8 hPa 0,0 l/m 0 min 0 min 22 W/m 3,2 km/h (1 Bft) 95,74 %
04.03.2020 07:52 4,9 C 4,4 C 3,9 C 97 % 1010,8 hPa 0,0 l/m 0 min 2 min 24 W/m 3,2 km/h (1 Bft) 95,74 %
04.03.2020 07:54 5,0 C 4,4 C 3,9 C 97 % 1010,8 hPa 0,0 l/m 0 min 0 min 25 W/m 0,0 km/h (0 Bft) 95,74 %
04.03.2020 07:56 5,0 C 4,4 C 3,9 C 97 % 1010,8 hPa 0,0 l/m 0 min 2 min 31 W/m 6,4 km/h (2 Bft) 95,74 %
04.03.2020 07:58 5,0 C 4,4 C 3,9 C 97 % 1010,8 hPa 0,0 l/m 0 min 2 min 33 W/m 3,2 km/h (1 Bft) 95,65 %
04.03.2020 08:00 5,0 C 4,4 C 3,9 C 97 % 1010,8 hPa 0,0 l/m 0 min 2 min 35 W/m 3,2 km/h (1 Bft) 95,74 %
04.03.2020 08:02 5,0 C 4,4 C 3,9 C 97 % 1010,9 hPa 0,0 l/m 0 min 2 min 35 W/m 6,4 km/h (2 Bft) 95,74 %
04.03.2020 08:04 5,0 C 4,4 C 3,9 C 97 % 1010,9 hPa 0,0 l/m 0 min 2 min 36 W/m 0,0 km/h (0 Bft) 95,74 %
04.03.2020 08:06 5,0 C 4,4 C 3,9 C 97 % 1011,0 hPa 0,0 l/m 0 min 2 min 38 W/m 0,0 km/h (0 Bft) 95,74 %
04.03.2020 08:08 5,1 C 4,4 C 3,9 C 97 % 1011,0 hPa 0,0 l/m 0 min 2 min 34 W/m 0,0 km/h (0 Bft) 95,74 %
04.03.2020 08:10 5,1 C 4,4 C 3,9 C 97 % 1011,0 hPa 0,0 l/m 0 min 2 min 33 W/m 6,4 km/h (2 Bft) 95,65 %
04.03.2020 08:12 5,1 C 4,4 C 3,9 C 97 % 1011,0 hPa 0,0 l/m 0 min 2 min 40 W/m 3,2 km/h (1 Bft) 95,74 %
04.03.2020 08:14 5,1 C 4,4 C 3,9 C 97 % 1011,0 hPa 0,0 l/m 0 min 2 min 47 W/m 6,4 km/h (2 Bft) 95,74 %
04.03.2020 08:16 5,1 C 4,4 C 3,9 C 97 % 1011,1 hPa 0,0 l/m 0 min 0 min 48 W/m 0,0 km/h (0 Bft) 57,45 %
04.03.2020 08:18 5,1 C 4,4 C 3,9 C 97 % 1011,0 hPa 0,0 l/m 0 min 2 min 43 W/m 6,4 km/h (2 Bft) 91,67 %
04.03.2020 08:20 5,1 C 4,4 C 3,9 C 97 % 1011,1 hPa 0,0 l/m 0 min 2 min 45 W/m 16,1 km/h (3 Bft) 95,74 %
04.03.2020 08:22 5,1 C 4,4 C 3,9 C 97 % 1011,0 hPa 0,0 l/m 0 min 2 min 47 W/m 0,0 km/h (0 Bft) 93,48 %
04.03.2020 08:24 5,1 C 4,4 C 3,9 C 97 % 1011,1 hPa 0,0 l/m 0 min 0 min 54 W/m 3,2 km/h (1 Bft) 95,74 %
04.03.2020 08:26 5,1 C 4,4 C 3,9 C 97 % 1011,1 hPa 0,0 l/m 0 min 0 min 58 W/m 12,9 km/h (3 Bft) 97,87 %
04.03.2020 08:28 5,1 C 4,4 C 3,9 C 97 % 1011,1 hPa 0,0 l/m 0 min 0 min 60 W/m 6,4 km/h (2 Bft) 97,87 %
04.03.2020 08:30 5,1 C 4,4 C 3,9 C 97 % 1011,2 hPa 0,0 l/m 0 min 0 min 60 W/m 6,4 km/h (2 Bft) 97,87 %
04.03.2020 08:32 5,1 C 4,4 C 3,9 C 97 % 1011,2 hPa 0,0 l/m 0 min 0 min 62 W/m 0,0 km/h (0 Bft) 97,83 %
04.03.2020 08:34 5,1 C 4,4 C 3,9 C 97 % 1011,2 hPa 0,0 l/m 0 min 0 min 59 W/m 0,0 km/h (0 Bft) 97,87 %
04.03.2020 08:36 5,1 C 4,4 C 3,9 C 97 % 1011,2 hPa 0,0 l/m 0 min 0 min 62 W/m 3,2 km/h (1 Bft) 97,87 %
04.03.2020 08:38 5,1 C 4,4 C 3,9 C 97 % 1011,2 hPa 0,0 l/m 0 min 0 min 67 W/m 3,2 km/h (1 Bft) 97,87 %
04.03.2020 08:40 5,1 C 4,4 C 3,9 C 97 % 1011,3 hPa 0,0 l/m 0 min 0 min 73 W/m 3,2 km/h (1 Bft) 100,00 %
04.03.2020 08:42 5,1 C 4,4 C 3,9 C 97 % 1011,3 hPa 0,0 l/m 0 min 0 min 85 W/m 6,4 km/h (2 Bft) 100,00 %
04.03.2020 08:44 5,1 C 5,0 C 3,9 C 97 % 1011,3 hPa 0,0 l/m 0 min 0 min 95 W/m 0,0 km/h (0 Bft) 97,83 %
04.03.2020 08:46 5,1 C 5,0 C 3,9 C 97 % 1011,3 hPa 0,0 l/m 0 min 0 min 98 W/m 3,2 km/h (1 Bft) 97,87 %
04.03.2020 08:48 5,1 C 5,0 C 3,9 C 97 % 1011,2 hPa 0,0 l/m 0 min 0 min 107 W/m 0,0 km/h (0 Bft) 100,00 %
04.03.2020 08:50 5,1 C 5,0 C 4,4 C 97 % 1011,2 hPa 0,0 l/m 0 min 0 min 114 W/m 0,0 km/h (0 Bft) 97,87 %
04.03.2020 08:52 5,1 C 5,0 C 4,4 C 97 % 1011,2 hPa 0,0 l/m 0 min 0 min 108 W/m 0,0 km/h (0 Bft) 97,87 %
04.03.2020 08:54 5,1 C 5,0 C 4,4 C 97 % 1011,3 hPa 0,0 l/m 0 min 0 min 95 W/m 3,2 km/h (1 Bft) 100,00 %
04.03.2020 08:56 5,2 C 5,0 C 4,4 C 97 % 1011,3 hPa 0,0 l/m 0 min 0 min 90 W/m 9,7 km/h (2 Bft) 100,00 %
04.03.2020 08:58 5,2 C 5,0 C 3,9 C 97 % 1011,2 hPa 0,0 l/m 0 min 0 min 98 W/m 3,2 km/h (1 Bft) 100,00 %
04.03.2020 09:00 5,2 C 5,0 C 4,4 C 98 % 1011,2 hPa 0,0 l/m 0 min 2 min 99 W/m 0,0 km/h (0 Bft) 100,00 %
04.03.2020 09:02 5,2 C 5,0 C 4,4 C 98 % 1011,1 hPa 0,0 l/m 0 min 0 min 96 W/m 0,0 km/h (0 Bft) 100,00 %
04.03.2020 09:04 5,2 C 5,0 C 3,9 C 98 % 1011,1 hPa 0,0 l/m 0 min 0 min 87 W/m 6,4 km/h (2 Bft) 100,00 %
04.03.2020 09:06 5,2 C 5,0 C 3,9 C 98 % 1011,1 hPa 0,0 l/m 0 min 0 min 85 W/m 0,0 km/h (0 Bft) 100,00 %
04.03.2020 09:08 5,2 C 5,0 C 3,9 C 98 % 1011,1 hPa 0,0 l/m 0 min 0 min 88 W/m 6,4 km/h (2 Bft) 97,83 %
04.03.2020 09:10 5,2 C 5,0 C 3,9 C 98 % 1011,2 hPa 0,0 l/m 0 min 0 min 97 W/m 0,0 km/h (0 Bft) 97,87 %
04.03.2020 09:12 5,3 C 5,0 C 4,4 C 98 % 1011,2 hPa 0,0 l/m 0 min 0 min 114 W/m 9,7 km/h (2 Bft) 100,00 %
04.03.2020 09:14 5,3 C 5,6 C 4,4 C 98 % 1011,3 hPa 0,0 l/m 2 min 0 min 167 W/m 3,2 km/h (1 Bft) 95,74 %
04.03.2020 09:16 5,3 C 5,6 C 4,4 C 98 % 1011,3 hPa 0,0 l/m 2 min 0 min 183 W/m 0,0 km/h (0 Bft) 97,87 %
04.03.2020 09:18 5,4 C 6,7 C 4,4 C 98 % 1011,3 hPa 0,0 l/m 2 min 0 min 246 W/m 12,9 km/h (3 Bft) 95,65 %
04.03.2020 09:20 5,4 C 7,2 C 4,4 C 97 % 1011,3 hPa 0,0 l/m 2 min 0 min 258 W/m 0,0 km/h (0 Bft) 100,00 %
04.03.2020 09:25 5,6 C 6,7 C 5,0 C 97 % 1011,4 hPa 0,0 l/m 5 min 0 min 260 W/m 16,1 km/h (3 Bft) 97,73 %
04.03.2020 09:26 5,6 C 6,7 C 5,0 C 97 % 1011,4 hPa 0,0 l/m 1 min 0 min 173 W/m 3,2 km/h (1 Bft) 95,83 %
04.03.2020 09:28 5,6 C 6,7 C 5,0 C 98 % 1011,4 hPa 0,0 l/m 2 min 0 min 181 W/m 9,7 km/h (2 Bft) 97,87 %
04.03.2020 09:30 5,7 C 6,7 C 5,0 C 98 % 1011,4 hPa 0,0 l/m 2 min 0 min 262 W/m 19,3 km/h (3 Bft) 54,35 %
04.03.2020 09:32 5,7 C 6,7 C 5,6 C 97 % 1011,4 hPa 0,0 l/m 2 min 0 min 277 W/m 16,1 km/h (3 Bft) 97,87 %
04.03.2020 09:34 5,7 C 7,2 C 6,1 C 97 % 1011,4 hPa 0,0 l/m 0 min 0 min 163 W/m 6,4 km/h (2 Bft) 97,87 %
04.03.2020 09:36 5,8 C 7,2 C 6,1 C 97 % 1011,5 hPa 0,0 l/m 2 min 0 min 306 W/m 12,9 km/h (3 Bft) 97,87 %
04.03.2020 09:38 5,8 C 7,8 C 6,7 C 97 % 1011,4 hPa 0,0 l/m 2 min 0 min 335 W/m 16,1 km/h (3 Bft) 97,87 %
04.03.2020 09:40 5,9 C 7,8 C 6,7 C 97 % 1011,4 hPa 0,0 l/m 2 min 0 min 356 W/m 6,4 km/h (2 Bft) 93,62 %
04.03.2020 09:42 6,0 C 8,9 C 7,8 C 97 % 1011,5 hPa 0,0 l/m 2 min 0 min 361 W/m 12,9 km/h (3 Bft) 97,83 %
04.03.2020 09:44 6,1 C 7,8 C 6,7 C 97 % 1011,5 hPa 0,0 l/m 2 min 0 min 296 W/m 12,9 km/h (3 Bft) 97,87 %
04.03.2020 09:46 6,1 C 8,3 C 6,7 C 97 % 1011,5 hPa 0,0 l/m 2 min 0 min 233 W/m 6,4 km/h (2 Bft) 97,87 %
04.03.2020 09:48 6,2 C 7,8 C 6,1 C 97 % 1011,5 hPa 0,0 l/m 2 min 0 min 262 W/m 9,7 km/h (2 Bft) 97,87 %
04.03.2020 09:50 6,2 C 7,8 C 5,6 C 97 % 1011,6 hPa 0,0 l/m 2 min 0 min 307 W/m 12,9 km/h (3 Bft) 97,87 %
04.03.2020 09:52 6,3 C 6,7 C 5,6 C 97 % 1011,6 hPa 0,0 l/m 0 min 0 min 176 W/m 16,1 km/h (3 Bft) 95,74 %
04.03.2020 09:54 6,2 C 7,8 C 5,6 C 97 % 1011,6 hPa 0,0 l/m 0 min 0 min 132 W/m 12,9 km/h (3 Bft) 100,00 %
04.03.2020 09:56 6,3 C 7,8 C 5,6 C 96 % 1011,6 hPa 0,0 l/m 2 min 0 min 237 W/m 12,9 km/h (3 Bft) 100,00 %
04.03.2020 09:58 6,3 C 8,3 C 5,6 C 96 % 1011,6 hPa 0,0 l/m 2 min 0 min 249 W/m 9,7 km/h (2 Bft) 100,00 %
04.03.2020 10:00 6,4 C 9,4 C 5,6 C 96 % 1011,6 hPa 0,0 l/m 2 min 0 min 327 W/m 0,0 km/h (0 Bft) 97,87 %
04.03.2020 10:02 6,4 C 7,8 C 5,6 C 96 % 1011,6 hPa 0,0 l/m 2 min 0 min 323 W/m 12,9 km/h (3 Bft) 100,00 %
04.03.2020 10:04 6,5 C 8,3 C 5,6 C 96 % 1011,6 hPa 0,0 l/m 2 min 0 min 261 W/m 6,4 km/h (2 Bft) 95,92 %
04.03.2020 10:06 6,5 C 8,9 C 5,6 C 96 % 1011,6 hPa 0,0 l/m 2 min 0 min 374 W/m 9,7 km/h (2 Bft) 100,00 %
04.03.2020 10:08 6,6 C 10,0 C 5,6 C 95 % 1011,6 hPa 0,0 l/m 2 min 0 min 427 W/m 0,0 km/h (0 Bft) 100,00 %
04.03.2020 10:10 6,7 C 10,0 C 5,6 C 95 % 1011,6 hPa 0,0 l/m 2 min 0 min 461 W/m 3,2 km/h (1 Bft) 100,00 %
04.03.2020 10:12 6,8 C 10,0 C 6,1 C 95 % 1011,6 hPa 0,0 l/m 2 min 0 min 474 W/m 12,9 km/h (3 Bft) 100,00 %
04.03.2020 10:14 6,9 C 9,4 C 6,1 C 95 % 1011,5 hPa 0,0 l/m 2 min 0 min 457 W/m 12,9 km/h (3 Bft) 100,00 %
04.03.2020 10:16 6,9 C 10,0 C 6,1 C 94 % 1011,5 hPa 0,0 l/m 2 min 0 min 390 W/m 12,9 km/h (3 Bft) 100,00 %
04.03.2020 10:18 7,1 C 9,4 C 6,1 C 94 % 1011,5 hPa 0,0 l/m 2 min 0 min 353 W/m 3,2 km/h (1 Bft) 97,87 %
04.03.2020 10:20 7,1 C 8,3 C 5,6 C 94 % 1011,4 hPa 0,0 l/m 2 min 0 min 250 W/m 16,1 km/h (3 Bft) 100,00 %
04.03.2020 10:22 7,1 C 8,3 C 5,6 C 93 % 1011,5 hPa 0,0 l/m 2 min 0 min 255 W/m 3,2 km/h (1 Bft) 100,00 %
04.03.2020 10:25 7,2 C 7,8 C 5,6 C 92 % 1011,5 hPa 0,0 l/m 3 min 0 min 234 W/m 16,1 km/h (3 Bft) 98,57 %
04.03.2020 10:26 7,1 C 7,8 C 5,6 C 92 % 1011,4 hPa 0,0 l/m 1 min 0 min 378 W/m 12,9 km/h (3 Bft) 98,57 %
04.03.2020 10:28 7,1 C 8,9 C 5,6 C 92 % 1011,5 hPa 0,0 l/m 2 min 0 min 347 W/m 16,1 km/h (3 Bft) 100,00 %
04.03.2020 10:30 7,1 C 9,4 C 5,6 C 91 % 1011,5 hPa 0,0 l/m 2 min 0 min 406 W/m 6,4 km/h (2 Bft) 100,00 %
04.03.2020 10:32 7,2 C 10,6 C 5,6 C 91 % 1011,5 hPa 0,0 l/m 2 min 0 min 485 W/m 16,1 km/h (3 Bft) 97,87 %
04.03.2020 10:34 7,3 C 11,7 C 6,1 C 91 % 1011,5 hPa 0,0 l/m 2 min 0 min 492 W/m 9,7 km/h (2 Bft) 97,87 %
04.03.2020 10:36 7,3 C 12,2 C 6,1 C 91 % 1011,5 hPa 0,0 l/m 2 min 0 min 488 W/m 9,7 km/h (2 Bft) 100,00 %
04.03.2020 10:38 7,4 C 12,2 C 6,1 C 91 % 1011,5 hPa 0,0 l/m 2 min 0 min 499 W/m 19,3 km/h (3 Bft) 100,00 %
04.03.2020 10:40 7,5 C 12,8 C 6,1 C 90 % 1011,5 hPa 0,0 l/m 2 min 0 min 511 W/m 6,4 km/h (2 Bft) 100,00 %
04.03.2020 10:45 7,7 C 12,8 C 6,1 C 89 % 1011,5 hPa 0,0 l/m 5 min 0 min 506 W/m 19,3 km/h (3 Bft) 100,00 %
04.03.2020 10:50 7,9 C 12,8 C 6,1 C 89 % 1011,6 hPa 0,0 l/m 5 min 0 min 506 W/m 19,3 km/h (3 Bft) 100,00 %
04.03.2020 10:55 8,0 C 12,2 C 6,1 C 87 % 1011,6 hPa 0,0 l/m 5 min 0 min 503 W/m 22,5 km/h (4 Bft) 100,00 %
04.03.2020 11:00 8,2 C 13,3 C 6,7 C 87 % 1011,7 hPa 0,0 l/m 5 min 0 min 510 W/m 16,1 km/h (3 Bft) 96,49 %
04.03.2020 11:05 8,3 C 13,3 C 6,7 C 86 % 1011,7 hPa 0,0 l/m 5 min 0 min 544 W/m 16,1 km/h (3 Bft) 100,00 %
04.03.2020 11:10 8,5 C 13,3 C 7,2 C 85 % 1011,6 hPa 0,0 l/m 5 min 0 min 493 W/m 16,1 km/h (3 Bft) 100,00 %
04.03.2020 11:15 8,6 C 10,6 C 7,2 C 84 % 1011,7 hPa 0,0 l/m 5 min 0 min 370 W/m 19,3 km/h (3 Bft) 100,00 %
04.03.2020 11:20 8,4 C 10,6 C 7,2 C 83 % 1011,7 hPa 0,0 l/m 5 min 0 min 327 W/m 16,1 km/h (3 Bft) 100,00 %
04.03.2020 11:25 8,6 C 13,9 C 7,8 C 84 % 1011,7 hPa 0,0 l/m 5 min 0 min 575 W/m 19,3 km/h (3 Bft) 100,00 %
04.03.2020 11:30 8,8 C 15,0 C 8,3 C 83 % 1011,7 hPa 0,0 l/m 5 min 0 min 588 W/m 12,9 km/h (3 Bft) 99,12 %
04.03.2020 11:35 9,1 C 15,0 C 8,3 C 82 % 1011,7 hPa 0,0 l/m 5 min 0 min 605 W/m 12,9 km/h (3 Bft) 99,12 %
04.03.2020 11:40 9,2 C 13,9 C 8,9 C 81 % 1011,8 hPa 0,0 l/m 5 min 0 min 642 W/m 16,1 km/h (3 Bft) 100,00 %
04.03.2020 11:45 9,3 C 12,2 C 8,9 C 79 % 1011,8 hPa 0,0 l/m 5 min 0 min 375 W/m 12,9 km/h (3 Bft) 100,00 %
04.03.2020 11:50 9,4 C 12,8 C 8,9 C 78 % 1011,8 hPa 0,0 l/m 5 min 0 min 530 W/m 16,1 km/h (3 Bft) 99,12 %
04.03.2020 11:55 9,6 C 13,3 C 9,4 C 76 % 1011,8 hPa 0,0 l/m 5 min 0 min 516 W/m 16,1 km/h (3 Bft) 99,12 %
04.03.2020 12:00 9,6 C 12,2 C 8,9 C 74 % 1011,8 hPa 0,0 l/m 5 min 0 min 304 W/m 22,5 km/h (4 Bft) 100,00 %
04.03.2020 12:05 9,6 C 12,8 C 8,9 C 72 % 1011,8 hPa 0,0 l/m 5 min 0 min 516 W/m 19,3 km/h (3 Bft) 100,00 %
04.03.2020 12:10 9,7 C 13,9 C 9,4 C 72 % 1011,8 hPa 0,0 l/m 5 min 0 min 681 W/m 19,3 km/h (3 Bft) 100,00 %
04.03.2020 12:15 9,8 C 15,0 C 10,0 C 73 % 1011,7 hPa 0,0 l/m 5 min 0 min 704 W/m 19,3 km/h (3 Bft) 100,00 %
04.03.2020 12:20 10,2 C 16,7 C 10,6 C 72 % 1011,7 hPa 0,0 l/m 5 min 0 min 706 W/m 12,9 km/h (3 Bft) 100,00 %
04.03.2020 12:25 10,5 C 16,1 C 11,1 C 70 % 1011,6 hPa 0,0 l/m 5 min 0 min 751 W/m 25,7 km/h (4 Bft) 100,00 %
04.03.2020 12:30 10,9 C 16,7 C 11,7 C 71 % 1011,6 hPa 0,0 l/m 5 min 0 min 553 W/m 9,7 km/h (2 Bft) 100,00 %
04.03.2020 12:35 11,1 C 13,9 C 11,1 C 70 % 1011,6 hPa 0,0 l/m 5 min 0 min 418 W/m 12,9 km/h (3 Bft) 100,00 %
04.03.2020 12:40 11,1 C 12,2 C 10,6 C 68 % 1011,6 hPa 0,0 l/m 5 min 0 min 355 W/m 22,5 km/h (4 Bft) 100,00 %
04.03.2020 12:45 11,1 C 13,3 C 12,2 C 69 % 1011,6 hPa 0,0 l/m 5 min 0 min 596 W/m 12,9 km/h (3 Bft) 100,00 %
04.03.2020 12:50 10,9 C 12,2 C 11,7 C 67 % 1011,5 hPa 0,0 l/m 5 min 0 min 306 W/m 19,3 km/h (3 Bft) 100,00 %
04.03.2020 12:55 10,8 C 11,1 C 10,6 C 68 % 1011,5 hPa 0,0 l/m 0 min 0 min 187 W/m 19,3 km/h (3 Bft) 100,00 %
04.03.2020 13:00 10,6 C 10,0 C 9,4 C 68 % 1011,5 hPa 0,0 l/m 0 min 0 min 183 W/m 25,7 km/h (4 Bft) 100,00 %
04.03.2020 13:05 10,3 C 12,8 C 12,8 C 69 % 1011,5 hPa 0,0 l/m 5 min 0 min 341 W/m 12,9 km/h (3 Bft) 98,25 %
04.03.2020 13:10 10,4 C 15,0 C 14,4 C 71 % 1011,5 hPa 0,0 l/m 5 min 0 min 698 W/m 12,9 km/h (3 Bft) 100,00 %
04.03.2020 13:15 10,6 C 15,0 C 14,4 C 70 % 1011,4 hPa 0,0 l/m 5 min 0 min 736 W/m 19,3 km/h (3 Bft) 100,00 %
04.03.2020 13:20 10,8 C 16,1 C 12,8 C 71 % 1011,3 hPa 0,0 l/m 5 min 0 min 564 W/m 12,9 km/h (3 Bft) 100,00 %
04.03.2020 13:25 10,9 C 12,2 C 10,6 C 69 % 1011,2 hPa 0,0 l/m 5 min 0 min 327 W/m 16,1 km/h (3 Bft) 98,25 %
04.03.2020 13:30 10,9 C 13,9 C 10,6 C 70 % 1011,3 hPa 0,0 l/m 5 min 0 min 357 W/m 16,1 km/h (3 Bft) 98,25 %
04.03.2020 13:35 10,9 C 13,3 C 10,6 C 69 % 1011,2 hPa 0,0 l/m 5 min 0 min 485 W/m 19,3 km/h (3 Bft) 95,61 %
04.03.2020 13:40 10,9 C 14,4 C 10,6 C 70 % 1011,2 hPa 0,0 l/m 5 min 0 min 581 W/m 12,9 km/h (3 Bft) 95,61 %
04.03.2020 13:45 10,9 C 13,9 C 10,6 C 70 % 1011,1 hPa 0,0 l/m 5 min 0 min 398 W/m 16,1 km/h (3 Bft) 97,37 %
04.03.2020 13:50 10,9 C 13,9 C 10,6 C 69 % 1011,1 hPa 0,0 l/m 5 min 0 min 480 W/m 16,1 km/h (3 Bft) 96,49 %
04.03.2020 13:55 10,9 C 13,9 C 10,0 C 68 % 1011,0 hPa 0,0 l/m 5 min 0 min 523 W/m 32,2 km/h (5 Bft) 97,37 %
04.03.2020 14:00 10,8 C 11,7 C 10,0 C 68 % 1011,1 hPa 0,0 l/m 0 min 0 min 239 W/m 12,9 km/h (3 Bft) 98,25 %
04.03.2020 14:05 10,8 C 13,9 C 10,0 C 70 % 1011,1 hPa 0,0 l/m 5 min 0 min 561 W/m 16,1 km/h (3 Bft) 96,49 %
04.03.2020 14:10 10,7 C 13,9 C 10,0 C 68 % 1011,0 hPa 0,0 l/m 5 min 0 min 539 W/m 19,3 km/h (3 Bft) 98,25 %
04.03.2020 14:15 10,8 C 15,0 C 10,0 C 69 % 1011,0 hPa 0,0 l/m 5 min 0 min 532 W/m 12,9 km/h (3 Bft) 99,12 %
04.03.2020 14:20 10,9 C 15,0 C 10,0 C 70 % 1011,0 hPa 0,0 l/m 5 min 0 min 552 W/m 19,3 km/h (3 Bft) 100,00 %
04.03.2020 14:32 10,9 C 14,4 C 10,0 C 69 % 1010,9 hPa 0,0 l/m 5 min 0 min 531 W/m 16,1 km/h (3 Bft) 100,00 %
04.03.2020 14:35 10,9 C 15,0 C 10,0 C 71 % 1011,0 hPa 0,0 l/m 3 min 0 min 534 W/m 16,1 km/h (3 Bft) 67,54 %
04.03.2020 14:40 10,9 C 14,4 C 10,0 C 69 % 1010,9 hPa 0,0 l/m 5 min 0 min 543 W/m 16,1 km/h (3 Bft) 100,00 %
04.03.2020 14:45 10,9 C 14,4 C 10,0 C 70 % 1010,9 hPa 0,0 l/m 5 min 0 min 531 W/m 19,3 km/h (3 Bft) 100,00 %
04.03.2020 15:10 10,8 C 13,9 C 10,0 C 68 % 1010,8 hPa 0,0 l/m 5 min 0 min 489 W/m 16,1 km/h (3 Bft) 100,00 %
04.03.2020 15:12 10,8 C 13,3 C 10,0 C 68 % 1010,8 hPa 0,0 l/m 2 min 0 min 478 W/m 16,1 km/h (3 Bft) 100,00 %
04.03.2020 15:14 10,8 C 13,9 C 10,0 C 68 % 1010,8 hPa 0,0 l/m 2 min 0 min 466 W/m 16,1 km/h (3 Bft) 100,00 %
04.03.2020 15:16 10,7 C 13,9 C 10,0 C 68 % 1010,7 hPa 0,0 l/m 2 min 0 min 440 W/m 12,9 km/h (3 Bft) 100,00 %
04.03.2020 15:18 10,7 C 13,3 C 9,4 C 69 % 1010,7 hPa 0,0 l/m 2 min 0 min 385 W/m 0,0 km/h (0 Bft) 100,00 %
04.03.2020 15:20 10,7 C 12,8 C 9,4 C 69 % 1010,8 hPa 0,0 l/m 2 min 0 min 408 W/m 25,7 km/h (4 Bft) 100,00 %
04.03.2020 15:22 10,7 C 13,9 C 9,4 C 69 % 1010,7 hPa 0,0 l/m 2 min 0 min 462 W/m 22,5 km/h (4 Bft) 100,00 %
04.03.2020 15:24 10,7 C 13,3 C 9,4 C 69 % 1010,7 hPa 0,0 l/m 2 min 0 min 424 W/m 12,9 km/h (3 Bft) 100,00 %
04.03.2020 15:26 10,6 C 12,8 C 9,4 C 68 % 1010,7 hPa 0,0 l/m 2 min 0 min 406 W/m 22,5 km/h (4 Bft) 97,92 %
04.03.2020 15:28 10,6 C 13,3 C 9,4 C 68 % 1010,7 hPa 0,0 l/m 2 min 0 min 398 W/m 3,2 km/h (1 Bft) 97,92 %
04.03.2020 15:30 10,6 C 13,3 C 9,4 C 70 % 1010,7 hPa 0,0 l/m 2 min 0 min 372 W/m 0,0 km/h (0 Bft) 97,87 %
04.03.2020 15:32 10,6 C 13,3 C 9,4 C 71 % 1010,6 hPa 0,0 l/m 2 min 0 min 324 W/m 0,0 km/h (0 Bft) 95,83 %
04.03.2020 15:34 10,6 C 11,7 C 9,4 C 70 % 1010,7 hPa 0,0 l/m 2 min 0 min 247 W/m 0,0 km/h (0 Bft) 97,92 %
04.03.2020 15:36 10,6 C 10,6 C 8,9 C 70 % 1010,6 hPa 0,0 l/m 0 min 0 min 79 W/m 3,2 km/h (1 Bft) 95,83 %
04.03.2020 15:38 10,6 C 10,0 C 8,9 C 70 % 1010,6 hPa 0,0 l/m 0 min 0 min 79 W/m 3,2 km/h (1 Bft) 97,96 %
04.03.2020 15:40 10,4 C 11,1 C 8,9 C 70 % 1010,6 hPa 0,0 l/m 0 min 0 min 93 W/m 12,9 km/h (3 Bft) 97,87 %
04.03.2020 15:42 10,4 C 11,7 C 8,9 C 70 % 1010,5 hPa 0,0 l/m 2 min 0 min 324 W/m 16,1 km/h (3 Bft) 97,87 %
04.03.2020 15:44 10,4 C 11,7 C 9,4 C 70 % 1010,6 hPa 0,0 l/m 2 min 0 min 388 W/m 9,7 km/h (2 Bft) 97,92 %
04.03.2020 15:46 10,3 C 11,1 C 9,4 C 70 % 1010,5 hPa 0,0 l/m 2 min 0 min 208 W/m 12,9 km/h (3 Bft) 97,92 %
04.03.2020 15:48 10,3 C 11,1 C 9,4 C 71 % 1010,5 hPa 0,0 l/m 2 min 0 min 199 W/m 16,1 km/h (3 Bft) 97,87 %
04.03.2020 15:50 10,3 C 10,6 C 8,9 C 71 % 1010,4 hPa 0,0 l/m 0 min 0 min 140 W/m 0,0 km/h (0 Bft) 97,87 %
04.03.2020 15:52 10,2 C 10,0 C 8,9 C 71 % 1010,4 hPa 0,0 l/m 0 min 0 min 133 W/m 6,4 km/h (2 Bft) 97,87 %
04.03.2020 15:54 10,1 C 10,0 C 8,9 C 71 % 1010,4 hPa 0,0 l/m 0 min 0 min 117 W/m 3,2 km/h (1 Bft) 97,87 %
04.03.2020 15:56 10,1 C 9,4 C 8,3 C 71 % 1010,4 hPa 0,0 l/m 0 min 0 min 105 W/m 3,2 km/h (1 Bft) 95,74 %
04.03.2020 15:58 10,1 C 9,4 C 8,3 C 72 % 1010,3 hPa 0,0 l/m 0 min 0 min 101 W/m 3,2 km/h (1 Bft) 94,44 %
04.03.2020 16:00 10,0 C 9,4 C 8,3 C 72 % 1010,3 hPa 0,0 l/m 0 min 0 min 102 W/m 0,0 km/h (0 Bft) 93,10 %
04.03.2020 16:02 9,9 C 9,4 C 8,9 C 73 % 1010,2 hPa 0,0 l/m 0 min 0 min 118 W/m 0,0 km/h (0 Bft) 95,74 %
04.03.2020 16:04 9,9 C 10,0 C 9,4 C 73 % 1010,3 hPa 0,0 l/m 2 min 0 min 173 W/m 12,9 km/h (3 Bft) 95,74 %
04.03.2020 16:06 9,8 C 10,6 C 10,6 C 72 % 1010,2 hPa 0,0 l/m 2 min 0 min 235 W/m 25,7 km/h (4 Bft) 95,83 %
04.03.2020 16:10 9,8 C 10,6 C 10,0 C 72 % 1010,2 hPa 0,0 l/m 4 min 0 min 221 W/m 25,7 km/h (4 Bft) 100,00 %
04.03.2020 16:15 9,7 C 10,6 C 9,4 C 72 % 1010,2 hPa 0,0 l/m 5 min 0 min 168 W/m 22,5 km/h (4 Bft) 99,12 %
04.03.2020 16:20 9,7 C 9,4 C 8,9 C 73 % 1010,1 hPa 0,0 l/m 0 min 0 min 135 W/m 3,2 km/h (1 Bft) 100,00 %
04.03.2020 16:25 9,6 C 9,4 C 8,9 C 73 % 1010,0 hPa 0,0 l/m 5 min 0 min 181 W/m 12,9 km/h (3 Bft) 99,12 %
04.03.2020 16:30 9,5 C 11,1 C 8,9 C 74 % 1010,0 hPa 0,0 l/m 5 min 0 min 296 W/m 22,5 km/h (4 Bft) 100,00 %
04.03.2020 16:35 9,6 C 11,7 C 8,9 C 74 % 1010,0 hPa 0,0 l/m 5 min 0 min 294 W/m 22,5 km/h (4 Bft) 100,00 %
04.03.2020 16:40 9,6 C 10,6 C 8,9 C 73 % 1010,0 hPa 0,0 l/m 5 min 0 min 186 W/m 25,7 km/h (4 Bft) 100,00 %
04.03.2020 16:45 9,6 C 11,1 C 8,3 C 72 % 1010,0 hPa 0,0 l/m 5 min 0 min 187 W/m 25,7 km/h (4 Bft) 100,00 %
04.03.2020 16:50 9,6 C 8,9 C 7,8 C 72 % 1010,0 hPa 0,0 l/m 0 min 0 min 97 W/m 12,9 km/h (3 Bft) 100,00 %
04.03.2020 16:55 9,4 C 8,3 C 7,8 C 73 % 1010,0 hPa 0,0 l/m 0 min 0 min 46 W/m 9,7 km/h (2 Bft) 100,00 %
04.03.2020 17:00 9,3 C 7,8 C 7,2 C 73 % 1009,9 hPa 0,0 l/m 0 min 0 min 39 W/m 12,9 km/h (3 Bft) 100,00 %
04.03.2020 17:05 9,1 C 7,8 C 7,2 C 74 % 1009,9 hPa 0,0 l/m 0 min 0 min 39 W/m 0,0 km/h (0 Bft) 100,00 %
04.03.2020 17:10 9,0 C 7,8 C 7,2 C 74 % 1009,8 hPa 0,0 l/m 0 min 0 min 47 W/m 0,0 km/h (0 Bft) 100,00 %
04.03.2020 17:15 8,9 C 7,8 C 7,2 C 75 % 1009,9 hPa 0,0 l/m 0 min 0 min 61 W/m 0,0 km/h (0 Bft) 100,00 %
04.03.2020 17:20 8,8 C 7,8 C 7,2 C 76 % 1009,9 hPa 0,0 l/m 0 min 0 min 52 W/m 0,0 km/h (0 Bft) 100,00 %
04.03.2020 17:25 8,8 C 7,8 C 7,2 C 77 % 1009,9 hPa 0,0 l/m 0 min 0 min 40 W/m 0,0 km/h (0 Bft) 100,00 %
04.03.2020 17:30 8,7 C 7,8 C 7,2 C 77 % 1009,8 hPa 0,0 l/m 0 min 0 min 30 W/m 0,0 km/h (0 Bft) 100,00 %
04.03.2020 17:35 8,6 C 7,8 C 7,2 C 77 % 1009,8 hPa 0,0 l/m 0 min 0 min 28 W/m 0,0 km/h (0 Bft) 100,00 %
04.03.2020 17:40 8,6 C 7,8 C 7,2 C 78 % 1009,8 hPa 0,0 l/m 0 min 0 min 29 W/m 0,0 km/h (0 Bft) 100,00 %
04.03.2020 17:50 8,6 C 7,8 C 7,2 C 78 % 1009,7 hPa 0,0 l/m 0 min 0 min 12 W/m 0,0 km/h (0 Bft) 98,05 %
04.03.2020 17:52 8,5 C 7,8 C 7,2 C 78 % 1009,7 hPa 0,0 l/m 0 min 0 min 12 W/m 0,0 km/h (0 Bft) 98,39 %
04.03.2020 17:54 8,5 C 7,8 C 7,2 C 78 % 1009,7 hPa 0,0 l/m 0 min 0 min 10 W/m 0,0 km/h (0 Bft) 97,87 %
04.03.2020 17:56 8,5 C 7,8 C 7,2 C 78 % 1009,7 hPa 0,0 l/m 0 min 0 min 8 W/m 0,0 km/h (0 Bft) 97,83 %
04.03.2020 17:58 8,4 C 7,2 C 7,2 C 78 % 1009,8 hPa 0,0 l/m 0 min 0 min 7 W/m 0,0 km/h (0 Bft) 97,62 %
04.03.2020 18:00 8,4 C 7,2 C 6,7 C 79 % 1009,7 hPa 0,0 l/m 0 min 0 min 5 W/m 0,0 km/h (0 Bft) 97,87 %
04.03.2020 18:02 8,4 C 7,2 C 6,7 C 79 % 1009,7 hPa 0,0 l/m 0 min 0 min 5 W/m 0,0 km/h (0 Bft) 95,74 %
04.03.2020 18:04 8,4 C 7,2 C 6,7 C 79 % 1009,8 hPa 0,0 l/m 0 min 0 min 3 W/m 0,0 km/h (0 Bft) 97,83 %
04.03.2020 18:08 8,4 C 7,2 C 6,7 C 79 % 1009,8 hPa 0,0 l/m 0 min 0 min 0 W/m 0,0 km/h (0 Bft) 97,87 %
04.03.2020 18:10 8,4 C 7,2 C 6,7 C 79 % 1009,7 hPa 0,0 l/m 0 min 0 min 0 W/m 0,0 km/h (0 Bft) 100,00 %
04.03.2020 18:12 8,3 C 7,2 C 6,7 C 79 % 1009,8 hPa 0,0 l/m 0 min 0 min 0 W/m 0,0 km/h (0 Bft) 100,00 %
04.03.2020 18:14 8,3 C 7,2 C 6,7 C 79 % 1009,7 hPa 0,0 l/m 0 min 0 min 0 W/m 0,0 km/h (0 Bft) 100,00 %
04.03.2020 18:16 8,3 C 7,2 C 6,7 C 79 % 1009,8 hPa 0,0 l/m 0 min 0 min 0 W/m 12,9 km/h (3 Bft) 100,00 %
04.03.2020 18:18 8,3 C 7,2 C 6,7 C 79 % 1009,8 hPa 0,0 l/m 0 min 0 min 0 W/m 16,1 km/h (3 Bft) 100,00 %
04.03.2020 18:20 8,3 C 7,2 C 6,7 C 79 % 1009,8 hPa 0,0 l/m 0 min 0 min 0 W/m 0,0 km/h (0 Bft) 100,00 %
04.03.2020 18:22 8,3 C 7,2 C 6,7 C 79 % 1009,8 hPa 0,0 l/m 0 min 0 min 0 W/m 0,0 km/h (0 Bft) 100,00 %
04.03.2020 18:24 8,3 C 7,2 C 6,7 C 79 % 1009,7 hPa 0,0 l/m 0 min 0 min 0 W/m 0,0 km/h (0 Bft) 97,83 %
04.03.2020 18:26 8,3 C 7,2 C 6,7 C 80 % 1009,8 hPa 0,0 l/m 0 min 0 min 0 W/m 0,0 km/h (0 Bft) 100,00 %
04.03.2020 18:28 8,3 C 7,2 C 6,7 C 80 % 1009,8 hPa 0,0 l/m 0 min 0 min 0 W/m 0,0 km/h (0 Bft) 95,74 %
04.03.2020 18:30 8,2 C 7,2 C 6,7 C 80 % 1009,7 hPa 0,0 l/m 0 min 0 min 0 W/m 0,0 km/h (0 Bft) 97,92 %
04.03.2020 18:32 8,2 C 7,2 C 6,7 C 80 % 1009,7 hPa 0,0 l/m 0 min 0 min 0 W/m 0,0 km/h (0 Bft) 97,87 %
04.03.2020 18:34 8,2 C 7,2 C 6,7 C 80 % 1009,7 hPa 0,0 l/m 0 min 0 min 0 W/m 0,0 km/h (0 Bft) 97,87 %
04.03.2020 18:36 8,2 C 7,2 C 6,7 C 80 % 1009,7 hPa 0,0 l/m 0 min 0 min 0 W/m 0,0 km/h (0 Bft) 97,83 %
04.03.2020 18:38 8,2 C 7,2 C 6,7 C 81 % 1009,7 hPa 0,0 l/m 0 min 0 min 0 W/m 0,0 km/h (0 Bft) 97,87 %
04.03.2020 18:40 8,1 C 7,2 C 6,7 C 81 % 1009,7 hPa 0,0 l/m 0 min 0 min 0 W/m 0,0 km/h (0 Bft) 97,87 %
04.03.2020 18:42 8,1 C 7,2 C 6,7 C 81 % 1009,7 hPa 0,0 l/m 0 min 0 min 0 W/m 0,0 km/h (0 Bft) 97,87 %
04.03.2020 18:44 8,1 C 7,2 C 6,7 C 81 % 1009,7 hPa 0,0 l/m 0 min 0 min 0 W/m 0,0 km/h (0 Bft) 97,87 %
04.03.2020 18:46 8,1 C 7,2 C 6,7 C 81 % 1009,7 hPa 0,0 l/m 0 min 0 min 0 W/m 0,0 km/h (0 Bft) 95,74 %
04.03.2020 18:48 8,1 C 7,2 C 6,7 C 81 % 1009,7 hPa 0,0 l/m 0 min 0 min 0 W/m 0,0 km/h (0 Bft) 97,83 %
04.03.2020 18:50 8,1 C 7,2 C 6,7 C 81 % 1009,7 hPa 0,0 l/m 0 min 0 min 0 W/m 0,0 km/h (0 Bft) 95,74 %
04.03.2020 18:52 8,0 C 7,2 C 6,1 C 81 % 1009,7 hPa 0,0 l/m 0 min 0 min 0 W/m 0,0 km/h (0 Bft) 95,74 %
04.03.2020 18:54 8,0 C 7,2 C 6,1 C 81 % 1009,6 hPa 0,0 l/m 0 min 0 min 0 W/m 0,0 km/h (0 Bft) 93,62 %
04.03.2020 18:56 8,0 C 6,7 C 6,1 C 81 % 1009,6 hPa 0,0 l/m 0 min 0 min 0 W/m 0,0 km/h (0 Bft) 95,74 %
04.03.2020 18:58 7,9 C 6,7 C 6,1 C 81 % 1009,6 hPa 0,0 l/m 0 min 0 min 0 W/m 0,0 km/h (0 Bft) 93,62 %
04.03.2020 19:00 7,9 C 6,7 C 6,1 C 82 % 1009,7 hPa 0,0 l/m 0 min 0 min 0 W/m 0,0 km/h (0 Bft) 95,74 %
04.03.2020 19:02 7,9 C 6,7 C 6,1 C 82 % 1009,7 hPa 0,0 l/m 0 min 0 min 0 W/m 0,0 km/h (0 Bft) 95,74 %
04.03.2020 19:04 7,9 C 6,7 C 6,1 C 82 % 1009,7 hPa 0,0 l/m 0 min 0 min 0 W/m 0,0 km/h (0 Bft) 95,65 %
04.03.2020 19:06 7,8 C 6,7 C 6,1 C 82 % 1009,7 hPa 0,0 l/m 0 min 0 min 0 W/m 0,0 km/h (0 Bft) 95,74 %
04.03.2020 19:08 7,8 C 6,7 C 6,1 C 82 % 1009,7 hPa 0,0 l/m 0 min 0 min 0 W/m 0,0 km/h (0 Bft) 91,49 %
04.03.2020 19:10 7,8 C 6,7 C 6,1 C 82 % 1009,7 hPa 0,0 l/m 0 min 0 min 0 W/m 0,0 km/h (0 Bft) 95,74 %
04.03.2020 19:12 7,8 C 6,7 C 6,1 C 82 % 1009,7 hPa 0,0 l/m 0 min 0 min 0 W/m 0,0 km/h (0 Bft) 91,49 %
04.03.2020 19:14 7,8 C 6,7 C 6,1 C 82 % 1009,8 hPa 0,0 l/m 0 min 0 min 0 W/m 0,0 km/h (0 Bft) 95,74 %
04.03.2020 19:16 7,8 C 6,7 C 6,1 C 82 % 1009,8 hPa 0,0 l/m 0 min 0 min 0 W/m 0,0 km/h (0 Bft) 95,65 %
04.03.2020 19:18 7,8 C 6,7 C 6,1 C 83 % 1009,8 hPa 0,0 l/m 0 min 0 min 0 W/m 0,0 km/h (0 Bft) 95,74 %
04.03.2020 19:20 7,7 C 6,7 C 6,1 C 83 % 1009,7 hPa 0,0 l/m 0 min 0 min 0 W/m 0,0 km/h (0 Bft) 93,62 %
04.03.2020 19:22 7,7 C 6,7 C 6,1 C 83 % 1009,8 hPa 0,0 l/m 0 min 0 min 0 W/m 0,0 km/h (0 Bft) 95,74 %
04.03.2020 19:24 7,7 C 6,1 C 6,1 C 83 % 1009,8 hPa 0,0 l/m 0 min 0 min 0 W/m 0,0 km/h (0 Bft) 95,74 %
04.03.2020 19:26 7,7 C 6,1 C 6,1 C 83 % 1009,8 hPa 0,0 l/m 0 min 0 min 0 W/m 0,0 km/h (0 Bft) 93,62 %
04.03.2020 19:28 7,6 C 6,1 C 6,1 C 83 % 1009,8 hPa 0,0 l/m 0 min 0 min 0 W/m 0,0 km/h (0 Bft) 93,48 %
04.03.2020 19:30 7,6 C 6,1 C 6,1 C 83 % 1009,8 hPa 0,0 l/m 0 min 0 min 0 W/m 0,0 km/h (0 Bft) 95,74 %
04.03.2020 19:32 7,6 C 6,1 C 5,6 C 83 % 1009,8 hPa 0,0 l/m 0 min 0 min 0 W/m 0,0 km/h (0 Bft) 93,62 %
04.03.2020 19:34 7,5 C 6,1 C 5,6 C 83 % 1009,8 hPa 0,0 l/m 0 min 0 min 0 W/m 0,0 km/h (0 Bft) 93,62 %
04.03.2020 19:36 7,5 C 6,1 C 5,6 C 84 % 1009,8 hPa 0,0 l/m 0 min 0 min 0 W/m 0,0 km/h (0 Bft) 95,74 %
04.03.2020 19:38 7,4 C 6,1 C 5,6 C 83 % 1009,7 hPa 0,0 l/m 0 min 0 min 0 W/m 0,0 km/h (0 Bft) 95,74 %
04.03.2020 19:40 7,4 C 5,6 C 5,6 C 83 % 1009,7 hPa 0,0 l/m 0 min 0 min 0 W/m 0,0 km/h (0 Bft) 93,48 %
04.03.2020 19:42 7,4 C 5,6 C 5,6 C 84 % 1009,7 hPa 0,0 l/m 0 min 0 min 0 W/m 0,0 km/h (0 Bft) 100,00 %
04.03.2020 19:44 7,3 C 5,6 C 5,6 C 84 % 1009,8 hPa 0,0 l/m 0 min 0 min 0 W/m 0,0 km/h (0 Bft) 97,87 %
04.03.2020 19:46 7,3 C 5,6 C 5,0 C 84 % 1009,8 hPa 0,0 l/m 0 min 0 min 0 W/m 0,0 km/h (0 Bft) 95,74 %
04.03.2020 19:48 7,3 C 5,6 C 5,0 C 84 % 1009,8 hPa 0,0 l/m 0 min 0 min 0 W/m 0,0 km/h (0 Bft) 97,87 %
04.03.2020 19:50 7,3 C 5,6 C 5,0 C 84 % 1009,7 hPa 0,0 l/m 0 min 0 min 0 W/m 0,0 km/h (0 Bft) 95,74 %
04.03.2020 19:52 7,3 C 5,6 C 5,0 C 84 % 1009,7 hPa 0,0 l/m 0 min 0 min 0 W/m 0,0 km/h (0 Bft) 97,83 %
04.03.2020 19:54 7,2 C 5,6 C 5,0 C 84 % 1009,7 hPa 0,0 l/m 0 min 0 min 0 W/m 0,0 km/h (0 Bft) 97,87 %
04.03.2020 19:56 7,2 C 5,6 C 5,0 C 84 % 1009,7 hPa 0,0 l/m 0 min 0 min 0 W/m 0,0 km/h (0 Bft) 91,49 %
04.03.2020 19:58 7,2 C 5,6 C 5,0 C 84 % 1009,7 hPa 0,0 l/m 0 min 0 min 0 W/m 0,0 km/h (0 Bft) 97,87 %
04.03.2020 20:00 7,2 C 5,6 C 5,0 C 84 % 1009,7 hPa 0,0 l/m 0 min 0 min 0 W/m 0,0 km/h (0 Bft) 95,74 %
04.03.2020 20:02 7,1 C 5,6 C 5,0 C 84 % 1009,8 hPa 0,0 l/m 0 min 0 min 0 W/m 0,0 km/h (0 Bft) 97,87 %
04.03.2020 20:04 7,1 C 5,6 C 5,0 C 84 % 1009,7 hPa 0,0 l/m 0 min 0 min 0 W/m 0,0 km/h (0 Bft) 97,83 %
04.03.2020 20:06 7,1 C 5,6 C 4,4 C 84 % 1009,7 hPa 0,0 l/m 0 min 0 min 0 W/m 0,0 km/h (0 Bft) 97,87 %
04.03.2020 20:08 7,1 C 5,0 C 4,4 C 84 % 1009,7 hPa 0,0 l/m 0 min 0 min 0 W/m 0,0 km/h (0 Bft) 97,87 %
04.03.2020 20:10 7,0 C 5,6 C 4,4 C 84 % 1009,7 hPa 0,0 l/m 0 min 0 min 0 W/m 0,0 km/h (0 Bft) 97,87 %
04.03.2020 20:12 6,9 C 5,6 C 4,4 C 84 % 1009,7 hPa 0,0 l/m 0 min 0 min 0 W/m 0,0 km/h (0 Bft) 95,74 %
04.03.2020 20:14 6,9 C 5,6 C 4,4 C 84 % 1009,6 hPa 0,0 l/m 0 min 0 min 0 W/m 0,0 km/h (0 Bft) 93,48 %
04.03.2020 20:16 6,9 C 5,0 C 4,4 C 84 % 1009,6 hPa 0,0 l/m 0 min 0 min 0 W/m 0,0 km/h (0 Bft) 97,87 %
04.03.2020 20:18 6,9 C 5,6 C 4,4 C 84 % 1009,6 hPa 0,0 l/m 0 min 0 min 0 W/m 0,0 km/h (0 Bft) 97,87 %
04.03.2020 20:20 6,8 C 5,6 C 4,4 C 84 % 1009,5 hPa 0,0 l/m 0 min 0 min 0 W/m 0,0 km/h (0 Bft) 100,00 %
04.03.2020 20:22 6,8 C 5,6 C 4,4 C 84 % 1009,5 hPa 0,0 l/m 0 min 0 min 0 W/m 0,0 km/h (0 Bft) 100,00 %
04.03.2020 20:24 6,8 C 5,6 C 4,4 C 84 % 1009,5 hPa 0,0 l/m 0 min 0 min 0 W/m 0,0 km/h (0 Bft) 100,00 %
04.03.2020 20:26 6,8 C 5,6 C 5,0 C 85 % 1009,5 hPa 0,0 l/m 0 min 0 min 0 W/m 0,0 km/h (0 Bft) 100,00 %
04.03.2020 20:28 6,7 C 5,6 C 5,0 C 85 % 1009,5 hPa 0,0 l/m 0 min 0 min 0 W/m 0,0 km/h (0 Bft) 100,00 %
04.03.2020 20:30 6,7 C 5,6 C 5,0 C 85 % 1009,5 hPa 0,0 l/m 0 min 0 min 0 W/m 0,0 km/h (0 Bft) 97,87 %
04.03.2020 20:32 6,7 C 5,6 C 5,0 C 85 % 1009,5 hPa 0,0 l/m 0 min 0 min 0 W/m 0,0 km/h (0 Bft) 97,87 %
04.03.2020 20:34 6,7 C 5,6 C 4,4 C 85 % 1009,4 hPa 0,0 l/m 0 min 0 min 0 W/m 0,0 km/h (0 Bft) 100,00 %
04.03.2020 20:36 6,6 C 5,6 C 4,4 C 85 % 1009,4 hPa 0,0 l/m 0 min 0 min 0 W/m 0,0 km/h (0 Bft) 100,00 %
04.03.2020 20:38 6,6 C 5,6 C 4,4 C 85 % 1009,4 hPa 0,0 l/m 0 min 0 min 0 W/m 0,0 km/h (0 Bft) 100,00 %
04.03.2020 20:40 6,6 C 5,6 C 4,4 C 85 % 1009,5 hPa 0,0 l/m 0 min 0 min 0 W/m 0,0 km/h (0 Bft) 97,87 %
04.03.2020 20:42 6,6 C 5,6 C 4,4 C 86 % 1009,5 hPa 0,0 l/m 0 min 0 min 0 W/m 0,0 km/h (0 Bft) 100,00 %
04.03.2020 20:44 6,6 C 5,6 C 4,4 C 86 % 1009,4 hPa 0,0 l/m 0 min 0 min 0 W/m 0,0 km/h (0 Bft) 100,00 %
04.03.2020 20:46 6,5 C 5,6 C 5,0 C 86 % 1009,4 hPa 0,0 l/m 0 min 0 min 0 W/m 0,0 km/h (0 Bft) 100,00 %
04.03.2020 20:48 6,5 C 5,6 C 5,0 C 86 % 1009,4 hPa 0,0 l/m 0 min 0 min 0 W/m 0,0 km/h (0 Bft) 100,00 %
04.03.2020 20:50 6,5 C 5,6 C 5,0 C 86 % 1009,4 hPa 0,0 l/m 0 min 0 min 0 W/m 0,0 km/h (0 Bft) 100,00 %
04.03.2020 20:52 6,5 C 5,6 C 5,0 C 86 % 1009,4 hPa 0,0 l/m 0 min 0 min 0 W/m 0,0 km/h (0 Bft) 97,87 %
04.03.2020 20:54 6,4 C 5,6 C 5,0 C 86 % 1009,4 hPa 0,0 l/m 0 min 0 min 0 W/m 0,0 km/h (0 Bft) 97,87 %
04.03.2020 20:56 6,4 C 5,6 C 5,0 C 86 % 1009,4 hPa 0,0 l/m 0 min 0 min 0 W/m 0,0 km/h (0 Bft) 100,00 %
04.03.2020 20:58 6,4 C 5,6 C 5,0 C 86 % 1009,4 hPa 0,0 l/m 0 min 0 min 0 W/m 0,0 km/h (0 Bft) 100,00 %
04.03.2020 21:00 6,3 C 5,6 C 5,0 C 86 % 1009,3 hPa 0,0 l/m 0 min 0 min 0 W/m 0,0 km/h (0 Bft) 100,00 %
04.03.2020 21:02 6,3 C 5,6 C 5,0 C 85 % 1009,4 hPa 0,0 l/m 0 min 0 min 0 W/m 0,0 km/h (0 Bft) 100,00 %
04.03.2020 21:04 6,3 C 5,6 C 5,0 C 85 % 1009,4 hPa 0,0 l/m 0 min 0 min 0 W/m 0,0 km/h (0 Bft) 100,00 %
04.03.2020 21:06 6,3 C 5,6 C 5,0 C 85 % 1009,4 hPa 0,0 l/m 0 min 0 min 0 W/m 0,0 km/h (0 Bft) 97,87 %
04.03.2020 21:08 6,3 C 5,6 C 5,0 C 85 % 1009,3 hPa 0,0 l/m 0 min 0 min 0 W/m 0,0 km/h (0 Bft) 100,00 %
04.03.2020 21:10 6,3 C 5,6 C 5,0 C 85 % 1009,4 hPa 0,0 l/m 0 min 0 min 0 W/m 0,0 km/h (0 Bft) 97,87 %
04.03.2020 21:12 6,3 C 5,6 C 5,0 C 85 % 1009,4 hPa 0,0 l/m 0 min 0 min 0 W/m 0,0 km/h (0 Bft) 100,00 %
04.03.2020 21:14 6,3 C 5,6 C 5,0 C 85 % 1009,4 hPa 0,0 l/m 0 min 0 min 0 W/m 0,0 km/h (0 Bft) 100,00 %
04.03.2020 21:16 6,3 C 5,6 C 5,0 C 85 % 1009,4 hPa 0,0 l/m 0 min 0 min 0 W/m 0,0 km/h (0 Bft) 100,00 %
04.03.2020 21:18 6,3 C 5,6 C 5,0 C 85 % 1009,3 hPa 0,0 l/m 0 min 0 min 0 W/m 0,0 km/h (0 Bft) 100,00 %
04.03.2020 21:20 6,3 C 5,6 C 4,4 C 85 % 1009,3 hPa 0,0 l/m 0 min 0 min 0 W/m 0,0 km/h (0 Bft) 100,00 %
04.03.2020 21:22 6,3 C 5,0 C 4,4 C 85 % 1009,3 hPa 0,0 l/m 0 min 0 min 0 W/m 0,0 km/h (0 Bft) 100,00 %
04.03.2020 21:24 6,3 C 5,0 C 4,4 C 85 % 1009,3 hPa 0,0 l/m 0 min 0 min 0 W/m 0,0 km/h (0 Bft) 100,00 %
04.03.2020 21:26 6,2 C 5,0 C 4,4 C 85 % 1009,3 hPa 0,0 l/m 0 min 0 min 0 W/m 0,0 km/h (0 Bft) 100,00 %
04.03.2020 21:28 6,2 C 5,0 C 4,4 C 85 % 1009,3 hPa 0,0 l/m 0 min 0 min 0 W/m 0,0 km/h (0 Bft) 100,00 %
04.03.2020 21:30 6,2 C 5,0 C 4,4 C 85 % 1009,3 hPa 0,0 l/m 0 min 0 min 0 W/m 0,0 km/h (0 Bft) 100,00 %
04.03.2020 21:32 6,2 C 5,0 C 4,4 C 85 % 1009,3 hPa 0,0 l/m 0 min 0 min 0 W/m 0,0 km/h (0 Bft) 100,00 %
04.03.2020 21:34 6,2 C 5,0 C 4,4 C 85 % 1009,3 hPa 0,0 l/m 0 min 0 min 0 W/m 0,0 km/h (0 Bft) 100,00 %
04.03.2020 21:36 6,2 C 5,0 C 4,4 C 85 % 1009,3 hPa 0,0 l/m 0 min 0 min 0 W/m 0,0 km/h (0 Bft) 100,00 %
04.03.2020 21:38 6,2 C 5,0 C 4,4 C 85 % 1009,2 hPa 0,0 l/m 0 min 0 min 0 W/m 0,0 km/h (0 Bft) 97,87 %
04.03.2020 21:40 6,1 C 5,0 C 4,4 C 86 % 1009,2 hPa 0,0 l/m 0 min 0 min 0 W/m 0,0 km/h (0 Bft) 93,62 %
04.03.2020 21:42 6,1 C 5,0 C 4,4 C 86 % 1009,2 hPa 0,0 l/m 0 min 0 min 0 W/m 0,0 km/h (0 Bft) 100,00 %
04.03.2020 21:44 6,1 C 5,0 C 4,4 C 86 % 1009,2 hPa 0,0 l/m 0 min 0 min 0 W/m 0,0 km/h (0 Bft) 100,00 %
04.03.2020 21:46 6,1 C 5,0 C 4,4 C 86 % 1009,1 hPa 0,0 l/m 0 min 0 min 0 W/m 0,0 km/h (0 Bft) 97,87 %
04.03.2020 21:48 6,1 C 5,0 C 4,4 C 86 % 1009,2 hPa 0,0 l/m 0 min 0 min 0 W/m 0,0 km/h (0 Bft) 97,87 %
04.03.2020 21:50 6,1 C 5,0 C 4,4 C 86 % 1009,1 hPa 0,0 l/m 0 min 0 min 0 W/m 0,0 km/h (0 Bft) 100,00 %
04.03.2020 21:52 6,1 C 5,0 C 4,4 C 86 % 1009,1 hPa 0,0 l/m 0 min 0 min 0 W/m 0,0 km/h (0 Bft) 97,87 %
04.03.2020 21:54 6,0 C 5,0 C 4,4 C 86 % 1009,0 hPa 0,0 l/m 0 min 0 min 0 W/m 0,0 km/h (0 Bft) 97,83 %
04.03.2020 21:56 6,0 C 5,0 C 4,4 C 86 % 1009,0 hPa 0,0 l/m 0 min 0 min 0 W/m 0,0 km/h (0 Bft) 95,74 %
04.03.2020 21:58 6,0 C 5,0 C 4,4 C 86 % 1009,0 hPa 0,0 l/m 0 min 0 min 0 W/m 0,0 km/h (0 Bft) 95,74 %
04.03.2020 22:00 6,0 C 5,0 C 4,4 C 86 % 1009,1 hPa 0,0 l/m 0 min 0 min 0 W/m 0,0 km/h (0 Bft) 93,62 %
04.03.2020 22:02 5,9 C 5,0 C 4,4 C 86 % 1009,0 hPa 0,0 l/m 0 min 0 min 0 W/m 0,0 km/h (0 Bft) 95,74 %
04.03.2020 22:04 5,9 C 5,0 C 4,4 C 86 % 1009,0 hPa 0,0 l/m 0 min 0 min 0 W/m 0,0 km/h (0 Bft) 53,33 %
04.03.2020 22:06 5,9 C 5,0 C 4,4 C 87 % 1009,0 hPa 0,0 l/m 0 min 0 min 0 W/m 0,0 km/h (0 Bft) 93,48 %
04.03.2020 22:08 5,9 C 5,0 C 4,4 C 87 % 1009,0 hPa 0,0 l/m 0 min 0 min 0 W/m 0,0 km/h (0 Bft) 95,74 %
04.03.2020 22:10 5,9 C 5,0 C 4,4 C 87 % 1009,0 hPa 0,0 l/m 0 min 0 min 0 W/m 0,0 km/h (0 Bft) 95,74 %
04.03.2020 22:12 5,8 C 5,0 C 4,4 C 87 % 1009,0 hPa 0,0 l/m 0 min 0 min 0 W/m 0,0 km/h (0 Bft) 95,74 %
04.03.2020 22:14 5,8 C 5,0 C 4,4 C 87 % 1009,0 hPa 0,0 l/m 0 min 0 min 0 W/m 0,0 km/h (0 Bft) 97,87 %
04.03.2020 22:16 5,8 C 5,0 C 4,4 C 87 % 1009,0 hPa 0,0 l/m 0 min 0 min 0 W/m 0,0 km/h (0 Bft) 93,62 %
04.03.2020 22:18 5,8 C 4,4 C 3,9 C 87 % 1008,9 hPa 0,0 l/m 0 min 0 min 0 W/m 0,0 km/h (0 Bft) 93,48 %
04.03.2020 22:20 5,8 C 4,4 C 3,9 C 87 % 1008,9 hPa 0,0 l/m 0 min 0 min 0 W/m 0,0 km/h (0 Bft) 93,62 %
04.03.2020 22:22 5,8 C 4,4 C 3,9 C 87 % 1008,9 hPa 0,0 l/m 0 min 0 min 0 W/m 0,0 km/h (0 Bft) 93,62 %
04.03.2020 22:24 5,7 C 4,4 C 3,9 C 87 % 1008,8 hPa 0,0 l/m 0 min 0 min 0 W/m 0,0 km/h (0 Bft) 91,49 %
04.03.2020 22:26 5,7 C 4,4 C 3,9 C 87 % 1008,9 hPa 0,0 l/m 0 min 0 min 0 W/m 0,0 km/h (0 Bft) 95,74 %
04.03.2020 22:28 5,7 C 4,4 C 3,9 C 87 % 1008,9 hPa 0,0 l/m 0 min 0 min 0 W/m 0,0 km/h (0 Bft) 93,62 %
04.03.2020 22:30 5,7 C 4,4 C 3,9 C 87 % 1008,9 hPa 0,0 l/m 0 min 0 min 0 W/m 0,0 km/h (0 Bft) 95,65 %
04.03.2020 22:32 5,7 C 4,4 C 3,9 C 88 % 1008,9 hPa 0,0 l/m 0 min 0 min 0 W/m 0,0 km/h (0 Bft) 97,87 %
04.03.2020 22:34 5,6 C 4,4 C 3,9 C 88 % 1008,9 hPa 0,0 l/m 0 min 0 min 0 W/m 0,0 km/h (0 Bft) 97,87 %
04.03.2020 22:36 5,6 C 4,4 C 3,9 C 88 % 1008,9 hPa 0,0 l/m 0 min 0 min 0 W/m 0,0 km/h (0 Bft) 97,87 %
04.03.2020 22:38 5,6 C 4,4 C 3,9 C 88 % 1008,9 hPa 0,0 l/m 0 min 0 min 0 W/m 0,0 km/h (0 Bft) 97,87 %
04.03.2020 22:40 5,6 C 4,4 C 3,9 C 88 % 1008,9 hPa 0,0 l/m 0 min 0 min 0 W/m 0,0 km/h (0 Bft) 95,74 %
04.03.2020 22:42 5,6 C 4,4 C 3,9 C 88 % 1008,8 hPa 0,0 l/m 0 min 0 min 0 W/m 0,0 km/h (0 Bft) 93,48 %
04.03.2020 22:44 5,6 C 4,4 C 3,9 C 88 % 1008,8 hPa 0,0 l/m 0 min 0 min 0 W/m 0,0 km/h (0 Bft) 95,74 %
04.03.2020 22:46 5,6 C 4,4 C 3,9 C 88 % 1008,8 hPa 0,0 l/m 0 min 0 min 0 W/m 12,9 km/h (3 Bft) 95,74 %
04.03.2020 22:48 5,5 C 4,4 C 3,9 C 88 % 1008,8 hPa 0,0 l/m 0 min 0 min 0 W/m 12,9 km/h (3 Bft) 97,87 %
04.03.2020 22:50 5,5 C 4,4 C 3,9 C 88 % 1008,8 hPa 0,0 l/m 0 min 0 min 0 W/m 0,0 km/h (0 Bft) 97,87 %
04.03.2020 22:52 5,5 C 4,4 C 3,9 C 89 % 1008,7 hPa 0,0 l/m 0 min 0 min 0 W/m 0,0 km/h (0 Bft) 95,65 %
04.03.2020 22:54 5,4 C 4,4 C 3,9 C 89 % 1008,7 hPa 0,0 l/m 0 min 0 min 0 W/m 12,9 km/h (3 Bft) 97,87 %
04.03.2020 22:56 5,4 C 4,4 C 3,9 C 89 % 1008,7 hPa 0,0 l/m 0 min 0 min 0 W/m 12,9 km/h (3 Bft) 95,74 %
04.03.2020 22:58 5,4 C 4,4 C 3,9 C 89 % 1008,6 hPa 0,0 l/m 0 min 0 min 0 W/m 0,0 km/h (0 Bft) 97,87 %
04.03.2020 23:00 5,4 C 4,4 C 3,9 C 89 % 1008,6 hPa 0,0 l/m 0 min 0 min 0 W/m 0,0 km/h (0 Bft) 97,87 %
04.03.2020 23:02 5,4 C 4,4 C 3,9 C 89 % 1008,6 hPa 0,0 l/m 0 min 0 min 0 W/m 0,0 km/h (0 Bft) 95,74 %
04.03.2020 23:04 5,4 C 4,4 C 3,9 C 89 % 1008,6 hPa 0,0 l/m 0 min 0 min 0 W/m 12,9 km/h (3 Bft) 95,65 %
04.03.2020 23:06 5,4 C 4,4 C 3,9 C 89 % 1008,5 hPa 0,0 l/m 0 min 0 min 0 W/m 6,4 km/h (2 Bft) 95,74 %
04.03.2020 23:08 5,4 C 4,4 C 3,9 C 89 % 1008,5 hPa 0,0 l/m 0 min 0 min 0 W/m 0,0 km/h (0 Bft) 97,87 %
04.03.2020 23:10 5,4 C 4,4 C 3,9 C 89 % 1008,5 hPa 0,0 l/m 0 min 0 min 0 W/m 0,0 km/h (0 Bft) 97,87 %
04.03.2020 23:12 5,4 C 4,4 C 3,9 C 89 % 1008,4 hPa 0,0 l/m 0 min 0 min 0 W/m 0,0 km/h (0 Bft) 95,74 %
04.03.2020 23:14 5,4 C 4,4 C 3,9 C 89 % 1008,4 hPa 0,0 l/m 0 min 0 min 0 W/m 0,0 km/h (0 Bft) 97,87 %
04.03.2020 23:16 5,4 C 4,4 C 3,9 C 89 % 1008,4 hPa 0,0 l/m 0 min 0 min 0 W/m 0,0 km/h (0 Bft) 97,83 %
04.03.2020 23:18 5,3 C 4,4 C 3,9 C 89 % 1008,4 hPa 0,0 l/m 0 min 0 min 0 W/m 0,0 km/h (0 Bft) 97,87 %
04.03.2020 23:20 5,3 C 4,4 C 3,9 C 89 % 1008,4 hPa 0,0 l/m 0 min 0 min 0 W/m 0,0 km/h (0 Bft) 93,62 %
04.03.2020 23:22 5,3 C 4,4 C 3,9 C 89 % 1008,3 hPa 0,0 l/m 0 min 0 min 0 W/m 0,0 km/h (0 Bft) 97,87 %
04.03.2020 23:24 5,3 C 4,4 C 3,9 C 89 % 1008,3 hPa 0,0 l/m 0 min 0 min 0 W/m 0,0 km/h (0 Bft) 97,87 %
04.03.2020 23:26 5,3 C 4,4 C 3,9 C 89 % 1008,3 hPa 0,0 l/m 0 min 0 min 0 W/m 6,4 km/h (2 Bft) 95,74 %
04.03.2020 23:28 5,3 C 4,4 C 3,9 C 89 % 1008,3 hPa 0,0 l/m 0 min 0 min 0 W/m 0,0 km/h (0 Bft) 97,83 %
04.03.2020 23:30 5,3 C 4,4 C 3,9 C 89 % 1008,3 hPa 0,0 l/m 0 min 0 min 0 W/m 0,0 km/h (0 Bft) 95,74 %
04.03.2020 23:32 5,3 C 4,4 C 3,9 C 89 % 1008,2 hPa 0,0 l/m 0 min 0 min 0 W/m 0,0 km/h (0 Bft) 97,87 %
04.03.2020 23:34 5,2 C 4,4 C 3,9 C 89 % 1008,2 hPa 0,0 l/m 0 min 0 min 0 W/m 0,0 km/h (0 Bft) 97,87 %
04.03.2020 23:36 5,2 C 4,4 C 3,9 C 89 % 1008,2 hPa 0,0 l/m 0 min 0 min 0 W/m 0,0 km/h (0 Bft) 97,87 %
04.03.2020 23:38 5,2 C 4,4 C 3,3 C 89 % 1008,2 hPa 0,0 l/m 0 min 0 min 0 W/m 0,0 km/h (0 Bft) 95,74 %
04.03.2020 23:40 5,2 C 3,9 C 3,3 C 89 % 1008,2 hPa 0,0 l/m 0 min 0 min 0 W/m 0,0 km/h (0 Bft) 97,83 %
04.03.2020 23:42 5,2 C 3,9 C 3,3 C 90 % 1008,1 hPa 0,0 l/m 0 min 0 min 0 W/m 0,0 km/h (0 Bft) 97,87 %
04.03.2020 23:44 5,1 C 3,9 C 3,3 C 90 % 1008,1 hPa 0,0 l/m 0 min 0 min 0 W/m 0,0 km/h (0 Bft) 95,74 %
04.03.2020 23:46 5,1 C 3,9 C 3,3 C 90 % 1008,1 hPa 0,0 l/m 0 min 0 min 0 W/m 0,0 km/h (0 Bft) 97,87 %
04.03.2020 23:48 5,1 C 3,9 C 3,3 C 90 % 1008,1 hPa 0,0 l/m 0 min 0 min 0 W/m 0,0 km/h (0 Bft) 95,74 %
04.03.2020 23:50 5,1 C 3,9 C 3,3 C 90 % 1008,0 hPa 0,0 l/m 0 min 0 min 0 W/m 0,0 km/h (0 Bft) 100,00 %
04.03.2020 23:52 5,1 C 3,9 C 3,3 C 90 % 1008,0 hPa 0,0 l/m 0 min 0 min 0 W/m 0,0 km/h (0 Bft) 100,00 %
04.03.2020 23:54 5,1 C 3,9 C 3,3 C 90 % 1007,9 hPa 0,0 l/m 0 min 0 min 0 W/m 0,0 km/h (0 Bft) 100,00 %
04.03.2020 23:56 5,0 C 3,9 C 3,3 C 90 % 1007,8 hPa 0,0 l/m 0 min 0 min 0 W/m 0,0 km/h (0 Bft) 97,87 %
04.03.2020 23:58 5,0 C 3,9 C 3,3 C 90 % 1007,8 hPa 0,0 l/m 0 min 0 min 0 W/m 0,0 km/h (0 Bft) 100,00 %
_ Min-Zeit 01:28 01:06 01:10 12:50 23:56 - - - - 00:00 22:04
Minimum _ 2,7 C 1,7 C 1,1 C 67 % 1007,8 hPa - - - - 0,0 km/h (0 Bft) 53,33 %
_ Max-Zeit 12:35 12:20 13:10 09:00 11:40 06:42 09:25 04:30 12:25 13:55 01:52
Maximum _ 11,1 C 16,7 C 14,4 C 98 % 1011,8 hPa 0,2 l/m 5 min 2 min 751 W/m 32,2 km/h
S (5 Bft)
100,00 %
Durchschnitt _ 6,6 C 6,8 C 5,4 C 86 % 1010,1 hPa #0,4 l/m #6:20 h #2:10 h 301 W/m 7,6 km/h (2 Bft) 97,01 %
© 2020 W. Hausmann